Observation data for Crowell on 12/08/2018      Previous  Date       Current Mesonet Observations  Soil Data  Daily Summary Page  Observations in Plain Language
KCR1 080600Z 01011KT 00/00 A3032 RMK A01 T00030001  RH  099%=      5-min Rain = 0
KCR1 080601Z 01013KT 00/00 A3032 RMK A01 T00030001  RH  099%=      5-min Rain = 0
KCR1 080602Z 01010KT 00/00 A3032 RMK A01 T00030001  RH  099%=      5-min Rain = 0
KCR1 080603Z 01010KT 00/00 A3032 RMK A01 T00030001  RH  099%=      5-min Rain = 0
KCR1 080604Z 01009KT 00/00 A3032 RMK A01 T00030001  RH  099%=      5-min Rain = 0
KCR1 080605Z 01010KT 00/00 A3032 RMK A01 T00040002  RH  099%=      5-min Rain = 0
KCR1 080606Z 01011KT 00/00 A3032 RMK A01 T00040002  RH  099%=      5-min Rain = 0
KCR1 080607Z 00010KT 00/00 A3032 RMK A01 T00040002  RH  099%=      5-min Rain = 0
KCR1 080608Z 36010KT 00/00 A3032 RMK A01 T00040002  RH  099%=      5-min Rain = 0
KCR1 080609Z 00010KT 00/00 A3032 RMK A01 T00040002  RH  099%=      5-min Rain = 0
KCR1 080610Z 35011G16KT 00/00 A3033 RMK A01 T00040003  RH  099%=      5-min Rain = 0
KCR1 080611Z 36013KT 00/00 A3033 RMK A01 T00040003  RH  099%=      5-min Rain = 0
KCR1 080612Z 36013KT 00/00 A3033 RMK A01 T00040002  RH  099%=      5-min Rain = 0
KCR1 080613Z 36011KT 00/00 A3033 RMK A01 T00040002  RH  099%=      5-min Rain = 0
KCR1 080614Z 00011KT 00/00 A3033 RMK A01 T00040002  RH  099%=      5-min Rain = 0.01
KCR1 080615Z 00011KT 00/00 A3033 RMK A01 T00040002  RH  099%=      5-min Rain = 0
KCR1 080616Z 36012KT 00/00 A3033 RMK A01 T00040002  RH  099%=      5-min Rain = 0
KCR1 080617Z 00012KT 00/00 A3033 RMK A01 T00040002  RH  099%=      5-min Rain = 0
KCR1 080618Z 01011KT 00/00 A3033 RMK A01 T00040001  RH  098%=      5-min Rain = 0
KCR1 080619Z 01010KT 00/00 A3033 RMK A01 T00040002  RH  099%=      5-min Rain = 0
KCR1 080620Z 01010KT 00/00 A3033 RMK A01 T00040002  RH  098%=      5-min Rain = 0
KCR1 080621Z 00010KT 00/00 A3033 RMK A01 T00040002  RH  098%=      5-min Rain = 0
KCR1 080622Z 00009KT 00/00 A3033 RMK A01 T00040002  RH  098%=      5-min Rain = 0
KCR1 080623Z 00009KT 00/00 A3034 RMK A01 T00040002  RH  098%=      5-min Rain = 0
KCR1 080624Z 00009KT 00/00 A3034 RMK A01 T00040002  RH  098%=      5-min Rain = 0
KCR1 080625Z 36010KT 00/00 A3034 RMK A01 T00040002  RH  098%=      5-min Rain = 0
KCR1 080626Z 35011KT 00/00 A3034 RMK A01 T00040002  RH  098%=      5-min Rain = 0
KCR1 080627Z 36010KT 00/00 A3034 RMK A01 T00040002  RH  098%=      5-min Rain = 0.01
KCR1 080628Z 36009KT 00/00 A3034 RMK A01 T00040001  RH  098%=      5-min Rain = 0
KCR1 080629Z 00009KT 00/00 A3034 RMK A01 T00040001  RH  098%=      5-min Rain = 0
KCR1 080630Z 00010KT 00/00 A3034 RMK A01 T00040002  RH  098%=      5-min Rain = 0
KCR1 080631Z 36010KT 01/00 A3033 RMK A01 T00050002  RH  098%=      5-min Rain = 0
KCR1 080632Z 36010KT 01/00 A3033 RMK A01 T00050002  RH  098%=      5-min Rain = 0
KCR1 080633Z 35010KT 00/00 A3033 RMK A01 T00040002  RH  098%=      5-min Rain = 0
KCR1 080634Z 36011KT 00/00 A3033 RMK A01 T00040002  RH  098%=      5-min Rain = 0
KCR1 080635Z 00013KT 00/00 A3033 RMK A01 T00040002  RH  098%=      5-min Rain = 0.01
KCR1 080636Z 36014KT 00/00 A3033 RMK A01 T00040002  RH  098%=      5-min Rain = 0
KCR1 080637Z 01012KT 00/00 A3033 RMK A01 T00040001  RH  098%=      5-min Rain = 0
KCR1 080638Z 00011KT 00/00 A3033 RMK A01 T00040001  RH  098%=      5-min Rain = 0
KCR1 080639Z 00011KT 00/00 A3033 RMK A01 T00040001  RH  098%=      5-min Rain = 0.01
KCR1 080640Z 00012KT 00/00 A3033 RMK A01 T00040001  RH  098%=      5-min Rain = 0
KCR1 080641Z 00012KT 00/00 A3033 RMK A01 T00040002  RH  098%=      5-min Rain = 0
KCR1 080642Z 00010KT 00/00 A3033 RMK A01 T00040001  RH  098%=      5-min Rain = 0
KCR1 080643Z 00012KT 00/00 A3032 RMK A01 T00040001  RH  098%=      5-min Rain = 0
KCR1 080644Z 01012KT 00/00 A3032 RMK A01 T00040001  RH  098%=      5-min Rain = 0.01
KCR1 080645Z 01012KT 00/00 A3032 RMK A01 T00040001  RH  098%=      5-min Rain = 0
KCR1 080646Z 01012KT 00/00 A3032 RMK A01 T00040002  RH  098%=      5-min Rain = 0
KCR1 080647Z 00010KT 00/00 A3033 RMK A01 T00040001  RH  098%=      5-min Rain = 0
KCR1 080648Z 00009KT 00/00 A3033 RMK A01 T00040001  RH  098%=      5-min Rain = 0
KCR1 080649Z 01010KT 00/00 A3033 RMK A01 T00040001  RH  098%=      5-min Rain = 0.01
KCR1 080650Z 01010KT 00/00 A3033 RMK A01 T00040001  RH  098%=      5-min Rain = 0
KCR1 080651Z 36010KT 00/00 A3033 RMK A01 T00040002  RH  098%=      5-min Rain = 0
KCR1 080652Z 01012KT 00/00 A3032 RMK A01 T00040002  RH  098%=      5-min Rain = 0
KCR1 080653Z 01011KT 00/00 A3032 RMK A01 T00040002  RH  098%=      5-min Rain = 0
KCR1 080654Z 01012KT 00/00 A3032 RMK A01 T00040002  RH  098%=      5-min Rain = 0
KCR1 080655Z 00012KT 00/00 A3032 RMK A01 T00040002  RH  098%=      5-min Rain = 0
KCR1 080656Z 00010KT 00/00 A3032 RMK A01 T00040002  RH  098%=      5-min Rain = 0.01
KCR1 080657Z 00011KT 00/00 A3032 RMK A01 T00040002  RH  098%=      5-min Rain = 0
KCR1 080658Z 01011KT 00/00 A3032 RMK A01 T00040002  RH  098%=      5-min Rain = 0
KCR1 080659Z 01012KT 00/00 A3032 RMK A01 T00040002  RH  098%=      5-min Rain = 0
KCR1 080700Z 01011KT 00/00 A3032 RMK A01 T00040001  RH  098%=      5-min Rain = 0
KCR1 080701Z 01012KT 00/00 A3032 RMK A01 T00040001  RH  098%=      5-min Rain = 0
KCR1 080702Z 01010KT 00/00 A3032 RMK A01 T00040001  RH  098%=      5-min Rain = 0.01
KCR1 080703Z 00012KT 00/00 A3032 RMK A01 T00040002  RH  098%=      5-min Rain = 0
KCR1 080704Z 01011KT 00/00 A3032 RMK A01 T00040002  RH  098%=      5-min Rain = 0
KCR1 080705Z 01010KT 00/00 A3032 RMK A01 T00040001  RH  098%=      5-min Rain = 0
KCR1 080706Z 01012KT 00/00 A3032 RMK A01 T00040002  RH  098%=      5-min Rain = 0
KCR1 080707Z 00013KT 00/00 A3032 RMK A01 T00040002  RH  098%=      5-min Rain = 0
KCR1 080708Z 01012KT 00/00 A3032 RMK A01 T00040002  RH  098%=      5-min Rain = 0
KCR1 080709Z 01015KT 00/00 A3032 RMK A01 T00040001  RH  098%=      5-min Rain = 0
KCR1 080710Z 01013KT 00/00 A3032 RMK A01 T00040001  RH  098%=      5-min Rain = 0
KCR1 080711Z 01013KT 00/00 A3032 RMK A01 T00030001  RH  098%=      5-min Rain = 0.01
KCR1 080712Z 01012KT 00/00 A3032 RMK A01 T00030001  RH  098%=      5-min Rain = 0
KCR1 080713Z 01014KT 00/00 A3032 RMK A01 T00030001  RH  098%=      5-min Rain = 0
KCR1 080714Z 01012KT 00/00 A3032 RMK A01 T00030001  RH  098%=      5-min Rain = 0
KCR1 080715Z 01015KT 00/00 A3032 RMK A01 T00030001  RH  098%=      5-min Rain = 0
KCR1 080716Z 01015KT 00/00 A3032 RMK A01 T00030001  RH  098%=      5-min Rain = 0
KCR1 080717Z 01014KT 00/00 A3032 RMK A01 T00040001  RH  098%=      5-min Rain = 0
KCR1 080718Z 01013KT 00/00 A3032 RMK A01 T00030001  RH  098%=      5-min Rain = 0
KCR1 080719Z 01013KT 00/00 A3032 RMK A01 T00030001  RH  098%=      5-min Rain = 0
KCR1 080720Z 02013KT 00/00 A3032 RMK A01 T00030001  RH  098%=      5-min Rain = 0
KCR1 080721Z 02013KT 00/00 A3032 RMK A01 T00030001  RH  098%=      5-min Rain = 0
KCR1 080722Z 01011KT 00/00 A3032 RMK A01 T00030001  RH  098%=      5-min Rain = 0
KCR1 080723Z 02012KT 00/00 A3032 RMK A01 T00030001  RH  098%=      5-min Rain = 0
KCR1 080724Z 01013KT 00/00 A3032 RMK A01 T00030001  RH  098%=      5-min Rain = 0
KCR1 080725Z 01013KT 00/00 A3032 RMK A01 T00030001  RH  098%=      5-min Rain = 0
KCR1 080726Z 01013KT 00/00 A3032 RMK A01 T00030000  RH  098%=      5-min Rain = 0.01
KCR1 080727Z 01012KT 00/00 A3032 RMK A01 T00030001  RH  098%=      5-min Rain = 0
KCR1 080728Z 01013KT 00/00 A3032 RMK A01 T00030001  RH  098%=      5-min Rain = 0
KCR1 080729Z 01013KT 00/00 A3032 RMK A01 T00030001  RH  098%=      5-min Rain = 0
KCR1 080730Z 02011KT 00/00 A3032 RMK A01 T00040001  RH  098%=      5-min Rain = 0
KCR1 080731Z 01012KT 00/00 A3032 RMK A01 T00040001  RH  098%=      5-min Rain = 0
KCR1 080732Z 01012KT 00/00 A3032 RMK A01 T00040001  RH  098%=      5-min Rain = 0
KCR1 080733Z 01015KT 00/00 A3032 RMK A01 T00040001  RH  098%=      5-min Rain = 0
KCR1 080734Z 01014KT 00/00 A3032 RMK A01 T00040001  RH  098%=      5-min Rain = 0
KCR1 080735Z 01012KT 00/00 A3032 RMK A01 T00040001  RH  098%=      5-min Rain = 0
KCR1 080736Z 01013KT 00/00 A3032 RMK A01 T00040001  RH  098%=      5-min Rain = 0
KCR1 080737Z 01011KT 00/00 A3032 RMK A01 T00040001  RH  098%=      5-min Rain = 0
KCR1 080738Z 01011KT 00/00 A3032 RMK A01 T00040001  RH  098%=      5-min Rain = 0
KCR1 080739Z 01013KT 00/00 A3032 RMK A01 T00040002  RH  098%=      5-min Rain = 0
KCR1 080740Z 01011KT 00/00 A3032 RMK A01 T00040002  RH  098%=      5-min Rain = 0
KCR1 080741Z 01011KT 00/00 A3032 RMK A01 T00040001  RH  098%=      5-min Rain = 0
KCR1 080742Z 00012KT 00/00 A3032 RMK A01 T00040002  RH  098%=      5-min Rain = 0
KCR1 080743Z 01013KT 00/00 A3032 RMK A01 T00040002  RH  098%=      5-min Rain = 0
KCR1 080744Z 01013KT 00/00 A3032 RMK A01 T00040001  RH  098%=      5-min Rain = 0.01
KCR1 080745Z 01011KT 00/00 A3032 RMK A01 T00040001  RH  098%=      5-min Rain = 0
KCR1 080746Z 00012KT 00/00 A3032 RMK A01 T00040001  RH  098%=      5-min Rain = 0
KCR1 080747Z 01012KT 00/00 A3032 RMK A01 T00040001  RH  098%=      5-min Rain = 0
KCR1 080748Z 00012KT 00/00 A3032 RMK A01 T00040001  RH  098%=      5-min Rain = 0
KCR1 080749Z 01010KT 00/00 A3032 RMK A01 T00040001  RH  098%=      5-min Rain = 0
KCR1 080750Z 01011KT 00/00 A3032 RMK A01 T00040001  RH  098%=      5-min Rain = 0
KCR1 080751Z 01012KT 00/00 A3032 RMK A01 T00040001  RH  098%=      5-min Rain = 0
KCR1 080752Z 00012KT 00/00 A3032 RMK A01 T00040001  RH  098%=      5-min Rain = 0
KCR1 080753Z 01012KT 00/00 A3032 RMK A01 T00040001  RH  098%=      5-min Rain = 0.01
KCR1 080754Z 01011KT 00/00 A3032 RMK A01 T00040001  RH  098%=      5-min Rain = 0
KCR1 080755Z 00011KT 00/00 A3032 RMK A01 T00040001  RH  098%=      5-min Rain = 0
KCR1 080756Z 01011KT 00/00 A3032 RMK A01 T00040001  RH  098%=      5-min Rain = 0
KCR1 080757Z 01013KT 00/00 A3032 RMK A01 T00040001  RH  098%=      5-min Rain = 0
KCR1 080758Z 00013KT 00/00 A3032 RMK A01 T00040001  RH  098%=      5-min Rain = 0
KCR1 080759Z 00011KT 00/00 A3032 RMK A01 T00040001  RH  098%=      5-min Rain = 0
KCR1 080800Z 00011KT 00/00 A3032 RMK A01 T00040001  RH  098%=      5-min Rain = 0
KCR1 080801Z 01010KT 00/00 A3032 RMK A01 T00040001  RH  098%=      5-min Rain = 0
KCR1 080802Z 01009KT 00/00 A3032 RMK A01 T00040001  RH  098%=      5-min Rain = 0
KCR1 080803Z 00011KT 00/00 A3032 RMK A01 T00040001  RH  098%=      5-min Rain = 0
KCR1 080804Z 01013KT 00/00 A3032 RMK A01 T00040001  RH  098%=      5-min Rain = 0.01
KCR1 080805Z 01011KT 00/00 A3032 RMK A01 T00040001  RH  098%=      5-min Rain = 0
KCR1 080806Z 01011KT 00/00 A3032 RMK A01 T00040001  RH  098%=      5-min Rain = 0
KCR1 080807Z 01013KT 00/00 A3032 RMK A01 T00040001  RH  098%=      5-min Rain = 0
KCR1 080808Z 01011KT 00/00 A3032 RMK A01 T00040001  RH  098%=      5-min Rain = 0
KCR1 080809Z 01010KT 00/00 A3032 RMK A01 T00030001  RH  098%=      5-min Rain = 0
KCR1 080810Z 01011KT 00/00 A3032 RMK A01 T00030001  RH  098%=      5-min Rain = 0.01
KCR1 080811Z 00011KT 00/00 A3032 RMK A01 T00030001  RH  098%=      5-min Rain = 0
KCR1 080812Z 01012KT 00/00 A3032 RMK A01 T00040001  RH  098%=      5-min Rain = 0
KCR1 080813Z 01012KT 00/00 A3032 RMK A01 T00030001  RH  098%=      5-min Rain = 0
KCR1 080814Z 01013KT 00/00 A3032 RMK A01 T00030001  RH  098%=      5-min Rain = 0
KCR1 080815Z 01012KT 00/00 A3032 RMK A01 T00030000  RH  098%=      5-min Rain = 0
KCR1 080816Z 01013KT 00/00 A3032 RMK A01 T00030000  RH  098%=      5-min Rain = 0
KCR1 080817Z 02015KT 00/00 A3032 RMK A01 T00030000  RH  098%=      5-min Rain = 0.01
KCR1 080818Z 02015KT 00/00 A3032 RMK A01 T000300-0  RH  098%=      5-min Rain = 0
KCR1 080819Z 02013KT 00/00 A3032 RMK A01 T000300-0  RH  098%=      5-min Rain = 0
KCR1 080820Z 02011KT 00/M00 A3032 RMK A01 T00021001  RH  098%=      5-min Rain = 0
KCR1 080821Z 02012KT 00/00 A3032 RMK A01 T000300-0  RH  098%=      5-min Rain = 0
KCR1 080822Z 01013KT 00/00 A3031 RMK A01 T000300-0  RH  098%=      5-min Rain = 0
KCR1 080823Z 02012KT 00/M00 A3031 RMK A01 T00021001  RH  098%=      5-min Rain = 0.01
KCR1 080824Z 01011KT 00/M00 A3031 RMK A01 T00021001  RH  098%=      5-min Rain = 0
KCR1 080825Z 01011KT 00/00 A3031 RMK A01 T000200-0  RH  098%=      5-min Rain = 0
KCR1 080826Z 01010KT 00/00 A3031 RMK A01 T000300-0  RH  098%=      5-min Rain = 0
KCR1 080827Z 01011KT 00/00 A3031 RMK A01 T000200-0  RH  098%=      5-min Rain = 0
KCR1 080828Z 02012KT 00/00 A3031 RMK A01 T000300-0  RH  098%=      5-min Rain = 0
KCR1 080829Z 01013KT 00/00 A3031 RMK A01 T000200-0  RH  098%=      5-min Rain = 0
KCR1 080830Z 01013KT 00/00 A3031 RMK A01 T000200-0  RH  098%=      5-min Rain = 0
KCR1 080831Z 01015KT 00/00 A3031 RMK A01 T000200-0  RH  098%=      5-min Rain = 0
KCR1 080832Z 01015KT 00/00 A3031 RMK A01 T000200-0  RH  098%=      5-min Rain = 0
KCR1 080833Z 01013KT 00/M00 A3031 RMK A01 T00021001  RH  098%=      5-min Rain = 0.01
KCR1 080834Z 01016KT 00/M00 A3031 RMK A01 T00021001  RH  098%=      5-min Rain = 0
KCR1 080835Z 02016KT 00/M00 A3031 RMK A01 T00011001  RH  098%=      5-min Rain = 0
KCR1 080836Z 01017KT 00/M00 A3031 RMK A01 T00011002  RH  098%=      5-min Rain = 0
KCR1 080837Z 01016KT 00/00 A3031 RMK A01 T000000-3  RH  098%=      5-min Rain = 0
KCR1 080838Z 02016KT 00/M00 A3031 RMK A01 T00011003  RH  098%=      5-min Rain = 0
KCR1 080839Z 02015KT 00/M00 A3031 RMK A01 T00011003  RH  098%=      5-min Rain = 0
KCR1 080840Z 01014KT 00/M00 A3031 RMK A01 T00011003  RH  098%=      5-min Rain = 0
KCR1 080841Z 02012KT 00/M00 A3031 RMK A01 T00011003  RH  098%=      5-min Rain = 0
KCR1 080842Z 02016KT 00/M00 A3031 RMK A01 T00011003  RH  098%=      5-min Rain = 0
KCR1 080843Z 01013KT 00/00 A3031 RMK A01 T000000-3  RH  098%=      5-min Rain = 0
KCR1 080844Z 01016KT 00/00 A3031 RMK A01 T00-000-4  RH  097%=      5-min Rain = 0
KCR1 080845Z 01015KT 00/00 A3031 RMK A01 T000000-3  RH  097%=      5-min Rain = 0
KCR1 080846Z 02016KT 00/00 A3031 RMK A01 T000000-4  RH  097%=      5-min Rain = 0
KCR1 080847Z 01017KT 00/00 A3031 RMK A01 T00-000-4  RH  097%=      5-min Rain = 0
KCR1 080848Z 02016KT M00/M00 A3031 RMK A01 T10011004  RH  097%=      5-min Rain = 0.01
KCR1 080849Z 02015KT 00/00 A3031 RMK A01 T00-000-4  RH  097%=      5-min Rain = 0
KCR1 080850Z 01017KT M00/M01 A3031 RMK A01 T10011005  RH  097%=      5-min Rain = 0
KCR1 080851Z 01016KT 00/00 A3031 RMK A01 T00-000-4  RH  097%=      5-min Rain = 0
KCR1 080852Z 01015KT 00/00 A3031 RMK A01 T00-000-4  RH  097%=      5-min Rain = 0
KCR1 080853Z 01016KT 00/01 A3031 RMK A01 T00-000-5  RH  097%=      5-min Rain = 0
KCR1 080854Z 02015KT 00/01 A3031 RMK A01 T00-000-5  RH  097%=      5-min Rain = 0
KCR1 080855Z 01014KT 00/00 A3031 RMK A01 T00-000-4  RH  097%=      5-min Rain = 0
KCR1 080856Z 01014KT 00/01 A3031 RMK A01 T00-000-5  RH  097%=      5-min Rain = 0
KCR1 080857Z 01016KT 00/01 A3031 RMK A01 T00-000-5  RH  097%=      5-min Rain = 0
KCR1 080858Z 01016KT 00/01 A3031 RMK A01 T00-000-5  RH  097%=      5-min Rain = 0
KCR1 080859Z 01014KT 00/01 A3031 RMK A01 T00-000-5  RH  097%=      5-min Rain = 0
KCR1 080900Z 01014KT 00/01 A3031 RMK A01 T00-000-5  RH  097%=      5-min Rain = 0
KCR1 080901Z 01016KT 00/01 A3031 RMK A01 T00-000-5  RH  097%=      5-min Rain = 0
KCR1 080902Z 01014KT 00/01 A3031 RMK A01 T00-000-5  RH  097%=      5-min Rain = 0
KCR1 080903Z 01013KT M00/M01 A3031 RMK A01 T10011006  RH  096%=      5-min Rain = 0
KCR1 080904Z 01015KT 00/01 A3031 RMK A01 T00-000-5  RH  096%=      5-min Rain = 0
KCR1 080905Z 01015KT 00/01 A3031 RMK A01 T00-000-6  RH  096%=      5-min Rain = 0
KCR1 080906Z 01014KT M00/M01 A3031 RMK A01 T10011006  RH  096%=      5-min Rain = 0
KCR1 080907Z 01014KT M00/M01 A3031 RMK A01 T10011006  RH  096%=      5-min Rain = 0
KCR1 080908Z 01012KT 00/01 A3031 RMK A01 T00-000-5  RH  097%=      5-min Rain = 0
KCR1 080909Z 01015KT 00/01 A3031 RMK A01 T000000-5  RH  097%=      5-min Rain = 0
KCR1 080910Z 01014KT 00/01 A3031 RMK A01 T000000-5  RH  097%=      5-min Rain = 0
KCR1 080911Z 01013KT 00/01 A3031 RMK A01 T000000-5  RH  096%=      5-min Rain = 0
KCR1 080912Z 02013KT 00/01 A3031 RMK A01 T000000-5  RH  097%=      5-min Rain = 0
KCR1 080913Z 02015KT 00/01 A3031 RMK A01 T00-000-5  RH  097%=      5-min Rain = 0
KCR1 080914Z 01012KT 00/01 A3031 RMK A01 T000000-5  RH  097%=      5-min Rain = 0
KCR1 080915Z 01014KT 00/01 A3031 RMK A01 T000000-5  RH  097%=      5-min Rain = 0
KCR1 080916Z 01013KT 00/00 A3031 RMK A01 T000000-4  RH  097%=      5-min Rain = 0
KCR1 080917Z 01012KT 00/01 A3031 RMK A01 T000000-5  RH  097%=      5-min Rain = 0
KCR1 080918Z 01013KT 00/00 A3031 RMK A01 T000000-4  RH  097%=      5-min Rain = 0
KCR1 080919Z 01014KT 00/01 A3031 RMK A01 T00-000-5  RH  097%=      5-min Rain = 0
KCR1 080920Z 00014KT 00/01 A3031 RMK A01 T00-000-5  RH  097%=      5-min Rain = 0
KCR1 080921Z 01013KT M00/M01 A3031 RMK A01 T10011006  RH  097%=      5-min Rain = 0
KCR1 080922Z 01016KT M00/M01 A3031 RMK A01 T10011006  RH  097%=      5-min Rain = 0
KCR1 080923Z 01015KT M00/M01 A3031 RMK A01 T10011006  RH  097%=      5-min Rain = 0
KCR1 080924Z 01014KT M00/M01 A3031 RMK A01 T10011006  RH  096%=      5-min Rain = 0
KCR1 080925Z 01013KT M00/M01 A3031 RMK A01 T10011006  RH  096%=      5-min Rain = 0
KCR1 080926Z 00014KT M00/M01 A3031 RMK A01 T10011006  RH  097%=      5-min Rain = 0
KCR1 080927Z 01015KT M00/M01 A3031 RMK A01 T10011006  RH  097%=      5-min Rain = 0
KCR1 080928Z 01013KT M00/M01 A3031 RMK A01 T10011006  RH  097%=      5-min Rain = 0
KCR1 080929Z 01013KT M00/M01 A3031 RMK A01 T10011006  RH  097%=      5-min Rain = 0
KCR1 080930Z 00013KT M00/M01 A3031 RMK A01 T10011006  RH  097%=      5-min Rain = 0
KCR1 080931Z 01011KT M00/M01 A3031 RMK A01 T10011006  RH  097%=      5-min Rain = 0
KCR1 080932Z 01010KT M00/M01 A3031 RMK A01 T10011006  RH  097%=      5-min Rain = 0
KCR1 080933Z 01012KT M00/M01 A3031 RMK A01 T10011006  RH  097%=      5-min Rain = 0
KCR1 080934Z 01012KT M00/M01 A3031 RMK A01 T10011006  RH  097%=      5-min Rain = 0
KCR1 080935Z 00011KT M00/M01 A3031 RMK A01 T10011006  RH  097%=      5-min Rain = 0
KCR1 080936Z 00012KT M00/M01 A3031 RMK A01 T10011006  RH  097%=      5-min Rain = 0
KCR1 080937Z 00012KT M00/M01 A3031 RMK A01 T10011006  RH  097%=      5-min Rain = 0
KCR1 080938Z 00013KT M00/M01 A3031 RMK A01 T10011006  RH  097%=      5-min Rain = 0
KCR1 080939Z 00013KT M00/M01 A3031 RMK A01 T10021006  RH  097%=      5-min Rain = 0
KCR1 080940Z 00011KT M00/M01 A3031 RMK A01 T10021006  RH  097%=      5-min Rain = 0
KCR1 080941Z 00011KT M00/M01 A3031 RMK A01 T10021006  RH  097%=      5-min Rain = 0
KCR1 080942Z 01012KT M00/M01 A3031 RMK A01 T10021006  RH  097%=      5-min Rain = 0
KCR1 080943Z 01010KT M00/M01 A3031 RMK A01 T10021006  RH  097%=      5-min Rain = 0
KCR1 080944Z 01010KT M00/M01 A3031 RMK A01 T10021006  RH  097%=      5-min Rain = 0
KCR1 080945Z 01009KT M00/M01 A3031 RMK A01 T10021006  RH  097%=      5-min Rain = 0
KCR1 080946Z 01011KT M00/M01 A3031 RMK A01 T10021006  RH  097%=      5-min Rain = 0
KCR1 080947Z 01012KT M00/M01 A3031 RMK A01 T10021006  RH  097%=      5-min Rain = 0
KCR1 080948Z 01012KT M00/M01 A3031 RMK A01 T10021006  RH  097%=      5-min Rain = 0
KCR1 080949Z 01012KT M00/M01 A3031 RMK A01 T10021006  RH  097%=      5-min Rain = 0
KCR1 080950Z 01013KT M00/M01 A3031 RMK A01 T10021006  RH  097%=      5-min Rain = 0
KCR1 080951Z 01013KT M00/M01 A3031 RMK A01 T10021006  RH  097%=      5-min Rain = 0
KCR1 080952Z 01012KT M00/M01 A3031 RMK A01 T10021006  RH  097%=      5-min Rain = 0
KCR1 080953Z 00014KT M00/M01 A3031 RMK A01 T10021007  RH  097%=      5-min Rain = 0
KCR1 080954Z 01015KT M00/M01 A3031 RMK A01 T10021006  RH  097%=      5-min Rain = 0
KCR1 080955Z 01012KT M00/M01 A3031 RMK A01 T10021006  RH  097%=      5-min Rain = 0
KCR1 080956Z 01011KT M00/M01 A3031 RMK A01 T10021007  RH  097%=      5-min Rain = 0
KCR1 080957Z 01010KT M00/M01 A3031 RMK A01 T10021006  RH  097%=      5-min Rain = 0
KCR1 080958Z 01011KT M00/M01 A3031 RMK A01 T10021006  RH  097%=      5-min Rain = 0
KCR1 080959Z 01013KT M00/M01 A3031 RMK A01 T10021006  RH  097%=      5-min Rain = 0
KCR1 081000Z 01012KT M00/M01 A3031 RMK A01 T10021006  RH  097%=      5-min Rain = 0
KCR1 081001Z 01013KT M00/M01 A303 RMK A01 T10021006  RH  097%=      5-min Rain = 0
KCR1 081002Z 01013KT M00/M01 A303 RMK A01 T10021006  RH  097%=      5-min Rain = 0
KCR1 081003Z 01013KT M00/M01 A303 RMK A01 T10021006  RH  097%=      5-min Rain = 0
KCR1 081004Z 01010KT M00/M01 A303 RMK A01 T10021006  RH  097%=      5-min Rain = 0
KCR1 081005Z 01012KT M00/M01 A303 RMK A01 T10021007  RH  097%=      5-min Rain = 0
KCR1 081006Z 01013KT M00/M01 A303 RMK A01 T10021006  RH  097%=      5-min Rain = 0
KCR1 081007Z 01014KT M00/M01 A303 RMK A01 T10021007  RH  097%=      5-min Rain = 0
KCR1 081008Z 01012KT M00/M01 A303 RMK A01 T10021007  RH  097%=      5-min Rain = 0
KCR1 081009Z 01013KT M00/M01 A303 RMK A01 T10021007  RH  097%=      5-min Rain = 0
KCR1 081010Z 01015KT M00/M01 A303 RMK A01 T10031008  RH  097%=      5-min Rain = 0
KCR1 081011Z 01015KT M00/M01 A303 RMK A01 T10031008  RH  096%=      5-min Rain = 0
KCR1 081012Z 01013KT M00/M01 A303 RMK A01 T10031008  RH  096%=      5-min Rain = 0
KCR1 081013Z 01014KT M00/M01 A303 RMK A01 T10021008  RH  096%=      5-min Rain = 0
KCR1 081014Z 02013KT M00/M01 A303 RMK A01 T10031008  RH  096%=      5-min Rain = 0
KCR1 081015Z 01014KT M00/M01 A303 RMK A01 T10031008  RH  096%=      5-min Rain = 0
KCR1 081016Z 01014KT M00/M01 A303 RMK A01 T10031009  RH  096%=      5-min Rain = 0
KCR1 081017Z 01015KT M00/M01 A303 RMK A01 T10031008  RH  096%=      5-min Rain = 0
KCR1 081018Z 02013KT M00/M01 A303 RMK A01 T10031009  RH  096%=      5-min Rain = 0
KCR1 081019Z 01012KT M00/M01 A303 RMK A01 T10031009  RH  096%=      5-min Rain = 0
KCR1 081020Z 02013KT M00/M01 A303 RMK A01 T10031009  RH  096%=      5-min Rain = 0
KCR1 081021Z 01014KT M00/M01 A303 RMK A01 T10031009  RH  096%=      5-min Rain = 0
KCR1 081022Z 01014KT M00/M01 A303 RMK A01 T10031009  RH  096%=      5-min Rain = 0
KCR1 081023Z 01014KT M00/M01 A303 RMK A01 T10031009  RH  096%=      5-min Rain = 0
KCR1 081024Z 01012KT M00/M01 A303 RMK A01 T10031009  RH  096%=      5-min Rain = 0
KCR1 081025Z 01013KT M00/M01 A303 RMK A01 T10031009  RH  096%=      5-min Rain = 0
KCR1 081026Z 01013KT M00/M01 A303 RMK A01 T10031009  RH  096%=      5-min Rain = 0
KCR1 081027Z 01013KT M00/M01 A303 RMK A01 T10031009  RH  096%=      5-min Rain = 0
KCR1 081028Z 01013KT M00/M01 A303 RMK A01 T10041009  RH  096%=      5-min Rain = 0
KCR1 081029Z 02014KT M00/M01 A303 RMK A01 T10041009  RH  096%=      5-min Rain = 0
KCR1 081030Z 01013KT M00/M01 A303 RMK A01 T10041010  RH  096%=      5-min Rain = 0
KCR1 081031Z 01012KT M00/M01 A303 RMK A01 T10031010  RH  096%=      5-min Rain = 0
KCR1 081032Z 01012KT M00/M01 A303 RMK A01 T10041010  RH  096%=      5-min Rain = 0
KCR1 081033Z 01013KT M00/M01 A303 RMK A01 T10041009  RH  096%=      5-min Rain = 0
KCR1 081034Z 01011KT M00/M01 A303 RMK A01 T10041009  RH  096%=      5-min Rain = 0
KCR1 081035Z 01012KT M00/M01 A303 RMK A01 T10031009  RH  096%=      5-min Rain = 0
KCR1 081036Z 01014KT M00/M01 A303 RMK A01 T10041009  RH  096%=      5-min Rain = 0
KCR1 081037Z 01013KT M00/M01 A303 RMK A01 T10041009  RH  096%=      5-min Rain = 0
KCR1 081038Z 01013KT M00/M01 A303 RMK A01 T10041010  RH  096%=      5-min Rain = 0
KCR1 081039Z 01012KT M00/M01 A303 RMK A01 T10041010  RH  096%=      5-min Rain = 0
KCR1 081040Z 01012KT M00/M01 A303 RMK A01 T10041010  RH  096%=      5-min Rain = 0
KCR1 081041Z 01013KT M00/M01 A303 RMK A01 T10041010  RH  096%=      5-min Rain = 0
KCR1 081042Z 01013KT M00/M01 A303 RMK A01 T10041010  RH  096%=      5-min Rain = 0
KCR1 081043Z 01012KT M00/M01 A303 RMK A01 T10041010  RH  096%=      5-min Rain = 0
KCR1 081044Z 01013KT M00/M01 A303 RMK A01 T10041010  RH  096%=      5-min Rain = 0
KCR1 081045Z 01013KT M00/M01 A303 RMK A01 T10041010  RH  096%=      5-min Rain = 0
KCR1 081046Z 01013KT M00/M01 A303 RMK A01 T10041010  RH  095%=      5-min Rain = 0
KCR1 081047Z 01012KT M00/M01 A3029 RMK A01 T10041010  RH  095%=      5-min Rain = 0
KCR1 081048Z 01012KT M00/M01 A3029 RMK A01 T10041010  RH  095%=      5-min Rain = 0
KCR1 081049Z 01013KT M00/M01 A3029 RMK A01 T10041011  RH  095%=      5-min Rain = 0
KCR1 081050Z 01014KT M00/M01 A3029 RMK A01 T10041011  RH  095%=      5-min Rain = 0
KCR1 081051Z 01013KT M00/M01 A3029 RMK A01 T10041011  RH  095%=      5-min Rain = 0
KCR1 081052Z 01013KT M00/M01 A3029 RMK A01 T10041011  RH  095%=      5-min Rain = 0
KCR1 081053Z 01012KT M00/M01 A3029 RMK A01 T10041011  RH  095%=      5-min Rain = 0
KCR1 081054Z 01013KT M00/M01 A3029 RMK A01 T10041011  RH  095%=      5-min Rain = 0
KCR1 081055Z 01013KT M00/M01 A3029 RMK A01 T10041011  RH  095%=      5-min Rain = 0
KCR1 081056Z 01013KT M00/M01 A3029 RMK A01 T10041011  RH  095%=      5-min Rain = 0
KCR1 081057Z 01013KT M00/M01 A3029 RMK A01 T10041011  RH  095%=      5-min Rain = 0
KCR1 081058Z 01012KT M00/M01 A3029 RMK A01 T10041011  RH  095%=      5-min Rain = 0
KCR1 081059Z 00013KT M00/M01 A3029 RMK A01 T10041011  RH  095%=      5-min Rain = 0
KCR1 081100Z 01013KT M00/M01 A3029 RMK A01 T10041011  RH  095%=      5-min Rain = 0
KCR1 081101Z 01014KT M00/M01 A3029 RMK A01 T10041011  RH  095%=      5-min Rain = 0
KCR1 081102Z 01014KT M00/M01 A3029 RMK A01 T10041011  RH  095%=      5-min Rain = 0
KCR1 081103Z 01012KT M00/M01 A3029 RMK A01 T10041012  RH  095%=      5-min Rain = 0
KCR1 081104Z 01014KT M00/M01 A3029 RMK A01 T10041012  RH  095%=      5-min Rain = 0
KCR1 081105Z 01012KT M01/M01 A3029 RMK A01 T10051012  RH  095%=      5-min Rain = 0
KCR1 081106Z 01014KT M01/M01 A3029 RMK A01 T10051012  RH  095%=      5-min Rain = 0
KCR1 081107Z 01012KT M01/M01 A3029 RMK A01 T10051012  RH  095%=      5-min Rain = 0
KCR1 081108Z 01012KT M01/M01 A3029 RMK A01 T10051012  RH  095%=      5-min Rain = 0
KCR1 081109Z 01013KT M00/M01 A3029 RMK A01 T10041011  RH  095%=      5-min Rain = 0
KCR1 081110Z 01013KT M01/M01 A3029 RMK A01 T10051012  RH  095%=      5-min Rain = 0
KCR1 081111Z 01015KT M00/M01 A3029 RMK A01 T10041011  RH  095%=      5-min Rain = 0
KCR1 081112Z 01013KT M00/M01 A3029 RMK A01 T10041012  RH  095%=      5-min Rain = 0
KCR1 081113Z 01012KT M00/M01 A3029 RMK A01 T10041012  RH  095%=      5-min Rain = 0
KCR1 081114Z 01013KT M00/M01 A3029 RMK A01 T10041012  RH  095%=      5-min Rain = 0
KCR1 081115Z 01014KT M01/M01 A3029 RMK A01 T10051012  RH  095%=      5-min Rain = 0
KCR1 081116Z 01014KT M00/M01 A3029 RMK A01 T10041012  RH  095%=      5-min Rain = 0
KCR1 081117Z 01013KT M00/M01 A3029 RMK A01 T10041012  RH  095%=      5-min Rain = 0
KCR1 081118Z 01014KT M01/M01 A3029 RMK A01 T10051012  RH  095%=      5-min Rain = 0
KCR1 081119Z 01014KT M00/M01 A3029 RMK A01 T10041012  RH  094%=      5-min Rain = 0
KCR1 081120Z 01013KT M00/M01 A3029 RMK A01 T10041013  RH  094%=      5-min Rain = 0
KCR1 081121Z 01013KT M00/M01 A3029 RMK A01 T10041012  RH  094%=      5-min Rain = 0
KCR1 081122Z 01013KT M00/M01 A3029 RMK A01 T10041012  RH  094%=      5-min Rain = 0
KCR1 081123Z 01015KT M00/M01 A3029 RMK A01 T10041012  RH  094%=      5-min Rain = 0
KCR1 081124Z 01013KT M00/M01 A3029 RMK A01 T10041012  RH  094%=      5-min Rain = 0
KCR1 081125Z 01015KT M00/M01 A3029 RMK A01 T10041012  RH  094%=      5-min Rain = 0
KCR1 081126Z 01013KT M00/M01 A3029 RMK A01 T10041013  RH  094%=      5-min Rain = 0
KCR1 081127Z 01013KT M00/M01 A3029 RMK A01 T10041013  RH  094%=      5-min Rain = 0
KCR1 081128Z 01013KT M00/M01 A3029 RMK A01 T10041013  RH  094%=      5-min Rain = 0
KCR1 081129Z 01013KT M00/M01 A3029 RMK A01 T10041013  RH  094%=      5-min Rain = 0
KCR1 081130Z 01013KT M00/M01 A3029 RMK A01 T10041013  RH  094%=      5-min Rain = 0
KCR1 081131Z 01014KT M00/M01 A3029 RMK A01 T10041013  RH  094%=      5-min Rain = 0
KCR1 081132Z 01013KT M00/M01 A3029 RMK A01 T10041013  RH  094%=      5-min Rain = 0
KCR1 081133Z 01013KT M00/M01 A303 RMK A01 T10041013  RH  093%=      5-min Rain = 0
KCR1 081134Z 01014KT M00/M01 A303 RMK A01 T10041014  RH  093%=      5-min Rain = 0
KCR1 081135Z 01013KT M00/M01 A303 RMK A01 T10041014  RH  093%=      5-min Rain = 0
KCR1 081136Z 01013KT M00/M01 A303 RMK A01 T10041014  RH  093%=      5-min Rain = 0
KCR1 081137Z 01013KT M00/M01 A303 RMK A01 T10041013  RH  093%=      5-min Rain = 0
KCR1 081138Z 01014KT M00/M01 A303 RMK A01 T10041013  RH  093%=      5-min Rain = 0
KCR1 081139Z 01014KT M00/M01 A303 RMK A01 T10041014  RH  093%=      5-min Rain = 0
KCR1 081140Z 01014KT M00/M01 A303 RMK A01 T10041014  RH  093%=      5-min Rain = 0
KCR1 081141Z 01012KT M00/M01 A303 RMK A01 T10041014  RH  093%=      5-min Rain = 0
KCR1 081142Z 01013KT M00/M01 A303 RMK A01 T10041014  RH  093%=      5-min Rain = 0
KCR1 081143Z 01010KT M00/M01 A303 RMK A01 T10041014  RH  093%=      5-min Rain = 0
KCR1 081144Z 01014KT M00/M01 A303 RMK A01 T10041014  RH  093%=      5-min Rain = 0
KCR1 081145Z 01015KT M00/M02 A303 RMK A01 T10041015  RH  093%=      5-min Rain = 0
KCR1 081146Z 01012KT M00/M02 A303 RMK A01 T10041015  RH  092%=      5-min Rain = 0
KCR1 081147Z 01015KT M00/M02 A303 RMK A01 T10041015  RH  093%=      5-min Rain = 0
KCR1 081148Z 01014KT M00/M02 A303 RMK A01 T10041015  RH  092%=      5-min Rain = 0
KCR1 081149Z 01013KT M00/M02 A303 RMK A01 T10041016  RH  092%=      5-min Rain = 0
KCR1 081150Z 01013KT M00/M02 A303 RMK A01 T10041016  RH  092%=      5-min Rain = 0
KCR1 081151Z 01013KT M00/M02 A303 RMK A01 T10041015  RH  092%=      5-min Rain = 0
KCR1 081152Z 01012KT M00/M02 A303 RMK A01 T10041015  RH  092%=      5-min Rain = 0
KCR1 081153Z 01013KT M00/M02 A303 RMK A01 T10041015  RH  092%=      5-min Rain = 0
KCR1 081154Z 01014KT M00/M02 A303 RMK A01 T10041015  RH  092%=      5-min Rain = 0
KCR1 081155Z 01014KT M00/M02 A303 RMK A01 T10041016  RH  091%=      5-min Rain = 0
KCR1 081156Z 01014KT M01/M02 A303 RMK A01 T10051017  RH  091%=      5-min Rain = 0
KCR1 081157Z 01013KT M01/M02 A303 RMK A01 T10051017  RH  091%=      5-min Rain = 0
KCR1 081158Z 01013KT M00/M02 A303 RMK A01 T10041016  RH  092%=      5-min Rain = 0
KCR1 081159Z 01014KT M00/M02 A303 RMK A01 T10041016  RH  092%=      5-min Rain = 0
KCR1 081200Z 01014KT M00/M02 A303 RMK A01 T10041016  RH  092%=      5-min Rain = 0
KCR1 081201Z 00012KT M01/M02 A303 RMK A01 T10051017  RH  092%=      5-min Rain = 0
KCR1 081202Z 01013KT M00/M02 A303 RMK A01 T10041016  RH  092%=      5-min Rain = 0
KCR1 081203Z 01015KT M01/M02 A303 RMK A01 T10051017  RH  092%=      5-min Rain = 0
KCR1 081204Z 01012KT M00/M02 A303 RMK A01 T10041017  RH  091%=      5-min Rain = 0
KCR1 081205Z 01014KT M00/M02 A303 RMK A01 T10041017  RH  091%=      5-min Rain = 0
KCR1 081206Z 01012KT M00/M02 A303 RMK A01 T10041017  RH  091%=      5-min Rain = 0
KCR1 081207Z 00013KT M01/M02 A3031 RMK A01 T10051017  RH  092%=      5-min Rain = 0
KCR1 081208Z 01014KT M01/M02 A3031 RMK A01 T10051016  RH  092%=      5-min Rain = 0
KCR1 081209Z 01013KT M00/M02 A3031 RMK A01 T10041016  RH  092%=      5-min Rain = 0
KCR1 081210Z 00012KT M00/M02 A3031 RMK A01 T10041016  RH  092%=      5-min Rain = 0
KCR1 081211Z 01012KT M01/M02 A3031 RMK A01 T10051017  RH  092%=      5-min Rain = 0
KCR1 081212Z 01011KT M00/M02 A3031 RMK A01 T10041016  RH  092%=      5-min Rain = 0
KCR1 081213Z 01012KT M00/M02 A3031 RMK A01 T10041016  RH  092%=      5-min Rain = 0
KCR1 081214Z 01012KT M00/M02 A3031 RMK A01 T10041016  RH  092%=      5-min Rain = 0
KCR1 081215Z 01015KT M00/M02 A3031 RMK A01 T10041016  RH  092%=      5-min Rain = 0
KCR1 081216Z 01013G18KT M01/M02 A3031 RMK A01 T10051017  RH  091%=      5-min Rain = 0
KCR1 081217Z 01014KT M01/M02 A3031 RMK A01 T10051017  RH  091%=      5-min Rain = 0
KCR1 081218Z 01012KT M00/M02 A3031 RMK A01 T10041017  RH  091%=      5-min Rain = 0
KCR1 081219Z 01015KT M00/M02 A3031 RMK A01 T10041017  RH  091%=      5-min Rain = 0
KCR1 081220Z 01014KT M00/M02 A303 RMK A01 T10041017  RH  091%=      5-min Rain = 0
KCR1 081221Z 01013KT M00/M02 A303 RMK A01 T10041017  RH  091%=      5-min Rain = 0
KCR1 081222Z 01013KT M01/M02 A303 RMK A01 T10051017  RH  091%=      5-min Rain = 0
KCR1 081223Z 01013KT M01/M02 A303 RMK A01 T10051017  RH  091%=      5-min Rain = 0
KCR1 081224Z 01014KT M01/M02 A303 RMK A01 T10051017  RH  091%=      5-min Rain = 0
KCR1 081225Z 01012KT M01/M02 A303 RMK A01 T10051017  RH  091%=      5-min Rain = 0
KCR1 081226Z 01015KT M00/M02 A303 RMK A01 T10041017  RH  091%=      5-min Rain = 0
KCR1 081227Z 01014KT M00/M02 A303 RMK A01 T10041017  RH  091%=      5-min Rain = 0
KCR1 081228Z 00013KT M01/M02 A303 RMK A01 T10051018  RH  091%=      5-min Rain = 0
KCR1 081229Z 01013KT M01/M02 A3031 RMK A01 T10051017  RH  091%=      5-min Rain = 0
KCR1 081230Z 01014KT M00/M02 A3031 RMK A01 T10041018  RH  091%=      5-min Rain = 0
KCR1 081231Z 01013KT M00/M02 A3031 RMK A01 T10041018  RH  091%=      5-min Rain = 0
KCR1 081232Z 01014KT M00/M02 A3031 RMK A01 T10041018  RH  091%=      5-min Rain = 0
KCR1 081233Z 01013KT M01/M02 A3031 RMK A01 T10051018  RH  090%=      5-min Rain = 0
KCR1 081234Z 01014KT M01/M02 A3031 RMK A01 T10051018  RH  090%=      5-min Rain = 0
KCR1 081235Z 01013KT M00/M02 A3031 RMK A01 T10041018  RH  090%=      5-min Rain = 0
KCR1 081236Z 01012KT M00/M02 A3031 RMK A01 T10041018  RH  091%=      5-min Rain = 0
KCR1 081237Z 01012KT M00/M02 A3031 RMK A01 T10041017  RH  091%=      5-min Rain = 0
KCR1 081238Z 01011KT M01/M02 A3031 RMK A01 T10051017  RH  091%=      5-min Rain = 0
KCR1 081239Z 01013KT M00/M02 A3031 RMK A01 T10041016  RH  092%=      5-min Rain = 0
KCR1 081240Z 01012KT M00/M02 A3031 RMK A01 T10041017  RH  091%=      5-min Rain = 0
KCR1 081241Z 01012KT M01/M02 A3031 RMK A01 T10051017  RH  091%=      5-min Rain = 0
KCR1 081242Z 01012KT M01/M02 A3031 RMK A01 T10051017  RH  091%=      5-min Rain = 0
KCR1 081243Z 01014KT M00/M02 A3031 RMK A01 T10041017  RH  091%=      5-min Rain = 0
KCR1 081244Z 00012KT M00/M02 A3031 RMK A01 T10041017  RH  091%=      5-min Rain = 0
KCR1 081245Z 01012KT M00/M02 A3031 RMK A01 T10041017  RH  091%=      5-min Rain = 0
KCR1 081246Z 01014KT M01/M02 A3031 RMK A01 T10051017  RH  091%=      5-min Rain = 0
KCR1 081247Z 01012KT M01/M02 A3031 RMK A01 T10051018  RH  091%=      5-min Rain = 0
KCR1 081248Z 00010KT M00/M02 A3031 RMK A01 T10041017  RH  091%=      5-min Rain = 0
KCR1 081249Z 01010KT M00/M02 A3031 RMK A01 T10041016  RH  092%=      5-min Rain = 0
KCR1 081250Z 00011KT M01/M02 A3031 RMK A01 T10051016  RH  092%=      5-min Rain = 0
KCR1 081251Z 00013KT M01/M02 A3031 RMK A01 T10051016  RH  092%=      5-min Rain = 0
KCR1 081252Z 01011KT M01/M02 A3031 RMK A01 T10051017  RH  092%=      5-min Rain = 0
KCR1 081253Z 01011KT M01/M02 A3032 RMK A01 T10051017  RH  092%=      5-min Rain = 0
KCR1 081254Z 01012KT M00/M02 A3032 RMK A01 T10041016  RH  092%=      5-min Rain = 0
KCR1 081255Z 00010KT M00/M02 A3032 RMK A01 T10041016  RH  092%=      5-min Rain = 0
KCR1 081256Z 01011KT M00/M02 A3032 RMK A01 T10041016  RH  092%=      5-min Rain = 0
KCR1 081257Z 01011KT M00/M02 A3032 RMK A01 T10041016  RH  092%=      5-min Rain = 0
KCR1 081258Z 01011KT M01/M02 A3032 RMK A01 T10051016  RH  092%=      5-min Rain = 0
KCR1 081259Z 01012KT M01/M02 A3032 RMK A01 T10051016  RH  092%=      5-min Rain = 0
KCR1 081300Z 00011KT M01/M02 A3032 RMK A01 T10051017  RH  092%=      5-min Rain = 0
KCR1 081301Z 00011KT M01/M02 A3032 RMK A01 T10051017  RH  092%=      5-min Rain = 0
KCR1 081302Z 01010KT M01/M02 A3032 RMK A01 T10051017  RH  092%=      5-min Rain = 0
KCR1 081303Z 01012KT M01/M02 A3032 RMK A01 T10051016  RH  092%=      5-min Rain = 0
KCR1 081304Z 00012KT M01/M02 A3032 RMK A01 T10051015  RH  093%=      5-min Rain = 0
KCR1 081305Z 01011KT M01/M02 A3032 RMK A01 T10051016  RH  092%=      5-min Rain = 0
KCR1 081306Z 01013KT M01/M02 A3032 RMK A01 T10051016  RH  092%=      5-min Rain = 0
KCR1 081307Z 00011KT M01/M02 A3032 RMK A01 T10051017  RH  092%=      5-min Rain = 0
KCR1 081308Z 01011KT M01/M02 A3032 RMK A01 T10051016  RH  092%=      5-min Rain = 0
KCR1 081309Z 01011KT M01/M02 A3032 RMK A01 T10051016  RH  092%=      5-min Rain = 0
KCR1 081310Z 01013KT M01/M02 A3032 RMK A01 T10051016  RH  092%=      5-min Rain = 0
KCR1 081311Z 00012KT M01/M02 A3032 RMK A01 T10051016  RH  092%=      5-min Rain = 0
KCR1 081312Z 00011KT M01/M02 A3032 RMK A01 T10051016  RH  092%=      5-min Rain = 0
KCR1 081313Z 00010KT M01/M02 A3032 RMK A01 T10051016  RH  092%=      5-min Rain = 0
KCR1 081314Z 00011KT M01/M02 A3032 RMK A01 T10051016  RH  092%=      5-min Rain = 0
KCR1 081315Z 36010KT M01/M02 A3032 RMK A01 T10051016  RH  092%=      5-min Rain = 0
KCR1 081316Z 36011KT M01/M02 A3032 RMK A01 T10051016  RH  092%=      5-min Rain = 0
KCR1 081317Z 36011KT M01/M02 A3032 RMK A01 T10051016  RH  092%=      5-min Rain = 0
KCR1 081318Z 36011KT M01/M02 A3033 RMK A01 T10051016  RH  092%=      5-min Rain = 0
KCR1 081319Z 36011KT M01/M02 A3033 RMK A01 T10051016  RH  092%=      5-min Rain = 0
KCR1 081320Z 35011KT M01/M02 A3033 RMK A01 T10051016  RH  092%=      5-min Rain = 0
KCR1 081321Z 35011KT M01/M02 A3033 RMK A01 T10051016  RH  092%=      5-min Rain = 0
KCR1 081322Z 36010KT M01/M02 A3033 RMK A01 T10051016  RH  092%=      5-min Rain = 0
KCR1 081323Z 36012KT M01/M02 A3033 RMK A01 T10051016  RH  092%=      5-min Rain = 0
KCR1 081324Z 00011KT M01/M02 A3033 RMK A01 T10051016  RH  092%=      5-min Rain = 0
KCR1 081325Z 36011KT M01/M02 A3033 RMK A01 T10051016  RH  092%=      5-min Rain = 0
KCR1 081326Z 00011KT M01/M02 A3033 RMK A01 T10051016  RH  093%=      5-min Rain = 0
KCR1 081327Z 36012KT M01/M02 A3033 RMK A01 T10051015  RH  093%=      5-min Rain = 0
KCR1 081328Z 00011KT M01/M02 A3033 RMK A01 T10051015  RH  093%=      5-min Rain = 0
KCR1 081329Z 00011KT M01/M02 A3033 RMK A01 T10051015  RH  093%=      5-min Rain = 0
KCR1 081330Z 36011KT M01/M02 A3033 RMK A01 T10051015  RH  093%=      5-min Rain = 0
KCR1 081331Z 35012KT M01/M02 A3033 RMK A01 T10051015  RH  093%=      5-min Rain = 0
KCR1 081332Z 35011KT M01/M02 A3033 RMK A01 T10061015  RH  093%=      5-min Rain = 0
KCR1 081333Z 36011KT M01/M02 A3033 RMK A01 T10051015  RH  093%=      5-min Rain = 0
KCR1 081334Z 35011KT M01/M02 A3033 RMK A01 T10061015  RH  093%=      5-min Rain = 0
KCR1 081335Z 36012KT M01/M02 A3033 RMK A01 T10061015  RH  093%=      5-min Rain = 0
KCR1 081336Z 35011KT M01/M02 A3033 RMK A01 T10061015  RH  093%=      5-min Rain = 0
KCR1 081337Z 35012KT M01/M02 A3033 RMK A01 T10061015  RH  094%=      5-min Rain = 0
KCR1 081338Z 36011KT M01/M02 A3033 RMK A01 T10061015  RH  094%=      5-min Rain = 0
KCR1 081339Z 36010KT M01/M02 A3033 RMK A01 T10061015  RH  094%=      5-min Rain = 0
KCR1 081340Z 36010KT M01/M02 A3033 RMK A01 T10061015  RH  094%=      5-min Rain = 0
KCR1 081341Z 00011KT M01/M01 A3033 RMK A01 T10061014  RH  094%=      5-min Rain = 0
KCR1 081342Z 36010KT M01/M01 A3033 RMK A01 T10061014  RH  094%=      5-min Rain = 0
KCR1 081343Z 36011KT M01/M01 A3033 RMK A01 T10061014  RH  094%=      5-min Rain = 0
KCR1 081344Z 36013KT M01/M01 A3033 RMK A01 T10061014  RH  094%=      5-min Rain = 0
KCR1 081345Z 36011KT M01/M02 A3033 RMK A01 T10061015  RH  094%=      5-min Rain = 0
KCR1 081346Z 36010KT M01/M02 A3033 RMK A01 T10061015  RH  094%=      5-min Rain = 0
KCR1 081347Z 36011KT M01/M02 A3034 RMK A01 T10061015  RH  094%=      5-min Rain = 0
KCR1 081348Z 36011KT M01/M02 A3034 RMK A01 T10061015  RH  094%=      5-min Rain = 0
KCR1 081349Z 00010KT M01/M02 A3034 RMK A01 T10061015  RH  094%=      5-min Rain = 0
KCR1 081350Z 00010KT M01/M01 A3034 RMK A01 T10061014  RH  094%=      5-min Rain = 0
KCR1 081351Z 00010KT M01/M01 A3034 RMK A01 T10061014  RH  094%=      5-min Rain = 0
KCR1 081352Z 36012KT M01/M01 A3034 RMK A01 T10061014  RH  094%=      5-min Rain = 0
KCR1 081353Z 36012KT M01/M02 A3034 RMK A01 T10061015  RH  094%=      5-min Rain = 0
KCR1 081354Z 36013KT M01/M02 A3034 RMK A01 T10061015  RH  094%=      5-min Rain = 0
KCR1 081355Z 35013KT M01/M02 A3034 RMK A01 T10061015  RH  094%=      5-min Rain = 0
KCR1 081356Z 36010KT M01/M02 A3034 RMK A01 T10061015  RH  094%=      5-min Rain = 0
KCR1 081357Z 36011KT M01/M02 A3034 RMK A01 T10061015  RH  094%=      5-min Rain = 0
KCR1 081358Z 36010KT M01/M01 A3034 RMK A01 T10061014  RH  094%=      5-min Rain = 0
KCR1 081359Z 35010KT M01/M01 A3034 RMK A01 T10061014  RH  094%=      5-min Rain = 0
KCR1 081400Z 35012KT M01/M01 A3034 RMK A01 T10061014  RH  095%=      5-min Rain = 0
KCR1 081401Z 35011KT M01/M02 A3034 RMK A01 T10071015  RH  094%=      5-min Rain = 0
KCR1 081402Z 36012KT M01/M02 A3034 RMK A01 T10071015  RH  094%=      5-min Rain = 0
KCR1 081403Z 35011KT M01/M02 A3034 RMK A01 T10071015  RH  094%=      5-min Rain = 0
KCR1 081404Z 36011KT M01/M02 A3034 RMK A01 T10071015  RH  094%=      5-min Rain = 0
KCR1 081405Z 35012KT M01/M02 A3034 RMK A01 T10071015  RH  095%=      5-min Rain = 0
KCR1 081406Z 35010KT M01/M02 A3034 RMK A01 T10071015  RH  095%=      5-min Rain = 0
KCR1 081407Z 35010KT M01/M01 A3034 RMK A01 T10071014  RH  095%=      5-min Rain = 0
KCR1 081408Z 35010KT M01/M01 A3034 RMK A01 T10071014  RH  095%=      5-min Rain = 0
KCR1 081409Z 35010KT M01/M01 A3034 RMK A01 T10071014  RH  095%=      5-min Rain = 0
KCR1 081410Z 35011KT M01/M01 A3034 RMK A01 T10071014  RH  095%=      5-min Rain = 0
KCR1 081411Z 35010KT M01/M01 A3034 RMK A01 T10071014  RH  095%=      5-min Rain = 0
KCR1 081412Z 35011KT M01/M01 A3034 RMK A01 T10071014  RH  095%=      5-min Rain = 0
KCR1 081413Z 35010KT M01/M01 A3034 RMK A01 T10071014  RH  095%=      5-min Rain = 0
KCR1 081414Z 35010KT M01/M01 A3034 RMK A01 T10071014  RH  095%=      5-min Rain = 0
KCR1 081415Z 36010KT M01/M01 A3034 RMK A01 T10071014  RH  095%=      5-min Rain = 0
KCR1 081416Z 35010KT M01/M01 A3034 RMK A01 T10071014  RH  095%=      5-min Rain = 0
KCR1 081417Z 35010KT M01/M01 A3034 RMK A01 T10071014  RH  095%=      5-min Rain = 0
KCR1 081418Z 36011KT M01/M01 A3034 RMK A01 T10071014  RH  095%=      5-min Rain = 0
KCR1 081419Z 36012KT M01/M01 A3034 RMK A01 T10071014  RH  095%=      5-min Rain = 0
KCR1 081420Z 36012KT M01/M01 A3034 RMK A01 T10071014  RH  095%=      5-min Rain = 0
KCR1 081421Z 35011KT M01/M01 A3034 RMK A01 T10071014  RH  095%=      5-min Rain = 0
KCR1 081422Z 36009KT M01/M01 A3034 RMK A01 T10071014  RH  095%=      5-min Rain = 0
KCR1 081423Z 36011KT M01/M01 A3034 RMK A01 T10071014  RH  095%=      5-min Rain = 0
KCR1 081424Z 35013KT M01/M01 A3034 RMK A01 T10071014  RH  095%=      5-min Rain = 0
KCR1 081425Z 35011KT M01/M01 A3034 RMK A01 T10071014  RH  095%=      5-min Rain = 0
KCR1 081426Z 36011KT M01/M02 A3034 RMK A01 T10071015  RH  095%=      5-min Rain = 0
KCR1 081427Z 36012KT M01/M01 A3034 RMK A01 T10071014  RH  095%=      5-min Rain = 0
KCR1 081428Z 00012KT M01/M02 A3034 RMK A01 T10071015  RH  095%=      5-min Rain = 0
KCR1 081429Z 36013KT M01/M02 A3034 RMK A01 T10071015  RH  095%=      5-min Rain = 0
KCR1 081430Z 36012KT M01/M02 A3034 RMK A01 T10071015  RH  095%=      5-min Rain = 0
KCR1 081431Z 00012KT M01/M02 A3034 RMK A01 T10071015  RH  095%=      5-min Rain = 0
KCR1 081432Z 00012KT M01/M02 A3034 RMK A01 T10071015  RH  094%=      5-min Rain = 0
KCR1 081433Z 35011KT M01/M02 A3034 RMK A01 T10081016  RH  094%=      5-min Rain = 0
KCR1 081434Z 36012KT M01/M02 A3034 RMK A01 T10081016  RH  094%=      5-min Rain = 0
KCR1 081435Z 36012KT M01/M02 A3034 RMK A01 T10081015  RH  094%=      5-min Rain = 0
KCR1 081436Z 00011KT M01/M02 A3034 RMK A01 T10081016  RH  094%=      5-min Rain = 0
KCR1 081437Z 00011KT M01/M02 A3034 RMK A01 T10081016  RH  094%=      5-min Rain = 0
KCR1 081438Z 00012KT M01/M02 A3034 RMK A01 T10081016  RH  095%=      5-min Rain = 0
KCR1 081439Z 00011KT M01/M02 A3034 RMK A01 T10081016  RH  094%=      5-min Rain = 0
KCR1 081440Z 00012KT M01/M02 A3034 RMK A01 T10081016  RH  095%=      5-min Rain = 0
KCR1 081441Z 36013KT M01/M02 A3034 RMK A01 T10081015  RH  095%=      5-min Rain = 0
KCR1 081442Z 36012KT M01/M02 A3034 RMK A01 T10081016  RH  094%=      5-min Rain = 0
KCR1 081443Z 36012KT M01/M02 A3034 RMK A01 T10081016  RH  094%=      5-min Rain = 0
KCR1 081444Z 00011KT M01/M02 A3034 RMK A01 T10081016  RH  094%=      5-min Rain = 0
KCR1 081445Z 36012KT M01/M02 A3034 RMK A01 T10081016  RH  095%=      5-min Rain = 0
KCR1 081446Z 36012KT M01/M02 A3034 RMK A01 T10081016  RH  095%=      5-min Rain = 0
KCR1 081447Z 00012KT M01/M02 A3034 RMK A01 T10081016  RH  095%=      5-min Rain = 0
KCR1 081448Z 00014KT M01/M02 A3034 RMK A01 T10081016  RH  094%=      5-min Rain = 0
KCR1 081449Z 36012KT M01/M02 A3034 RMK A01 T10081016  RH  094%=      5-min Rain = 0
KCR1 081450Z 00012KT M01/M02 A3034 RMK A01 T10081017  RH  094%=      5-min Rain = 0
KCR1 081451Z 36012KT M01/M02 A3034 RMK A01 T10081016  RH  094%=      5-min Rain = 0
KCR1 081452Z 00013KT M01/M02 A3034 RMK A01 T10081016  RH  094%=      5-min Rain = 0
KCR1 081453Z 00010KT M01/M02 A3034 RMK A01 T10081017  RH  094%=      5-min Rain = 0
KCR1 081454Z 36011KT M01/M02 A3034 RMK A01 T10081016  RH  094%=      5-min Rain = 0
KCR1 081455Z 00013KT M01/M02 A3034 RMK A01 T10081016  RH  094%=      5-min Rain = 0
KCR1 081456Z 36012KT M01/M02 A3034 RMK A01 T10081017  RH  094%=      5-min Rain = 0
KCR1 081457Z 00012KT M01/M02 A3034 RMK A01 T10081017  RH  094%=      5-min Rain = 0
KCR1 081458Z 00011KT M01/M02 A3034 RMK A01 T10081017  RH  094%=      5-min Rain = 0
KCR1 081459Z 00011KT M01/M02 A3034 RMK A01 T10081017  RH  094%=      5-min Rain = 0
KCR1 081500Z 36012KT M01/M02 A3034 RMK A01 T10081016  RH  094%=      5-min Rain = 0
KCR1 081501Z 36013KT M01/M02 A3034 RMK A01 T10081016  RH  094%=      5-min Rain = 0
KCR1 081502Z 00011KT M01/M02 A3034 RMK A01 T10081017  RH  094%=      5-min Rain = 0
KCR1 081503Z 00011KT M01/M02 A3034 RMK A01 T10081016  RH  094%=      5-min Rain = 0
KCR1 081504Z 36014KT M01/M02 A3034 RMK A01 T10071016  RH  094%=      5-min Rain = 0
KCR1 081505Z 00012KT M01/M02 A3034 RMK A01 T10081016  RH  094%=      5-min Rain = 0
KCR1 081506Z 00014KT M01/M02 A3034 RMK A01 T10081016  RH  094%=      5-min Rain = 0
KCR1 081507Z 00013KT M01/M02 A3034 RMK A01 T10081017  RH  094%=      5-min Rain = 0
KCR1 081508Z 00013KT M01/M02 A3034 RMK A01 T10081017  RH  094%=      5-min Rain = 0
KCR1 081509Z 00012KT M01/M02 A3034 RMK A01 T10081017  RH  093%=      5-min Rain = 0
KCR1 081510Z 00013KT M01/M02 A3034 RMK A01 T10081017  RH  094%=      5-min Rain = 0
KCR1 081511Z 00014KT M01/M02 A3034 RMK A01 T10081017  RH  094%=      5-min Rain = 0
KCR1 081512Z 36012KT M01/M02 A3034 RMK A01 T10081017  RH  094%=      5-min Rain = 0
KCR1 081513Z 00013KT M01/M02 A3034 RMK A01 T10081017  RH  093%=      5-min Rain = 0
KCR1 081514Z 01012KT M01/M02 A3034 RMK A01 T10081017  RH  094%=      5-min Rain = 0
KCR1 081515Z 00012KT M01/M02 A3034 RMK A01 T10081017  RH  094%=      5-min Rain = 0
KCR1 081516Z 00014KT M01/M02 A3034 RMK A01 T10071017  RH  094%=      5-min Rain = 0
KCR1 081517Z 01014KT M01/M02 A3035 RMK A01 T10081018  RH  093%=      5-min Rain = 0
KCR1 081518Z 00013KT M01/M02 A3035 RMK A01 T10081018  RH  093%=      5-min Rain = 0
KCR1 081519Z 00012KT M01/M02 A3035 RMK A01 T10081018  RH  093%=      5-min Rain = 0
KCR1 081520Z 36014KT M01/M02 A3035 RMK A01 T10071017  RH  093%=      5-min Rain = 0
KCR1 081521Z 01015KT M01/M02 A3035 RMK A01 T10071018  RH  093%=      5-min Rain = 0
KCR1 081522Z 00013KT M01/M02 A3035 RMK A01 T10071018  RH  092%=      5-min Rain = 0
KCR1 081523Z 00012KT M01/M02 A3035 RMK A01 T10071018  RH  093%=      5-min Rain = 0
KCR1 081524Z 01013KT M01/M02 A3035 RMK A01 T10071017  RH  093%=      5-min Rain = 0
KCR1 081525Z 00014KT M01/M02 A3035 RMK A01 T10071017  RH  093%=      5-min Rain = 0
KCR1 081526Z 00014KT M01/M02 A3035 RMK A01 T10071018  RH  093%=      5-min Rain = 0
KCR1 081527Z 00016KT M01/M02 A3035 RMK A01 T10071018  RH  092%=      5-min Rain = 0
KCR1 081528Z 00016KT M01/M02 A3035 RMK A01 T10071019  RH  092%=      5-min Rain = 0
KCR1 081529Z 00013KT M01/M02 A3035 RMK A01 T10071018  RH  092%=      5-min Rain = 0
KCR1 081530Z 00012KT M01/M02 A3035 RMK A01 T10071018  RH  092%=      5-min Rain = 0
KCR1 081531Z 00013KT M01/M02 A3035 RMK A01 T10071018  RH  093%=      5-min Rain = 0
KCR1 081532Z 01014KT M01/M02 A3035 RMK A01 T10071017  RH  093%=      5-min Rain = 0
KCR1 081533Z 00012KT M01/M02 A3035 RMK A01 T10071017  RH  093%=      5-min Rain = 0
KCR1 081534Z 00012KT M01/M02 A3035 RMK A01 T10071017  RH  093%=      5-min Rain = 0
KCR1 081535Z 00013KT M01/M02 A3035 RMK A01 T10071017  RH  093%=      5-min Rain = 0
KCR1 081536Z 00015KT M01/M02 A3035 RMK A01 T10071017  RH  093%=      5-min Rain = 0
KCR1 081537Z 00012KT M01/M02 A3035 RMK A01 T10071017  RH  093%=      5-min Rain = 0
KCR1 081538Z 00013KT M01/M02 A3035 RMK A01 T10071017  RH  093%=      5-min Rain = 0
KCR1 081539Z 00013KT M01/M02 A3035 RMK A01 T10071017  RH  093%=      5-min Rain = 0
KCR1 081540Z 00012KT M01/M02 A3035 RMK A01 T10071017  RH  092%=      5-min Rain = 0
KCR1 081541Z 00012KT M01/M02 A3035 RMK A01 T10071017  RH  093%=      5-min Rain = 0
KCR1 081542Z 01014KT M01/M02 A3035 RMK A01 T10071017  RH  093%=      5-min Rain = 0
KCR1 081543Z 00012KT M01/M02 A3035 RMK A01 T10071018  RH  092%=      5-min Rain = 0
KCR1 081544Z 36012KT M01/M02 A3035 RMK A01 T10071018  RH  092%=      5-min Rain = 0
KCR1 081545Z 00012KT M01/M02 A3035 RMK A01 T10071018  RH  092%=      5-min Rain = 0
KCR1 081546Z 00012KT M01/M02 A3035 RMK A01 T10071018  RH  092%=      5-min Rain = 0
KCR1 081547Z 36012KT M01/M02 A3035 RMK A01 T10071017  RH  093%=      5-min Rain = 0
KCR1 081548Z 35011KT M01/M02 A3035 RMK A01 T10061017  RH  093%=      5-min Rain = 0
KCR1 081549Z 36013KT M01/M02 A3035 RMK A01 T10061017  RH  093%=      5-min Rain = 0
KCR1 081550Z 36011KT M01/M02 A3035 RMK A01 T10061017  RH  093%=      5-min Rain = 0
KCR1 081551Z 36013KT M01/M02 A3035 RMK A01 T10061017  RH  093%=      5-min Rain = 0
KCR1 081552Z 36011KT M01/M02 A3036 RMK A01 T10071017  RH  093%=      5-min Rain = 0
KCR1 081553Z 36010KT M01/M02 A3036 RMK A01 T10061016  RH  093%=      5-min Rain = 0
KCR1 081554Z 00013KT M01/M02 A3036 RMK A01 T10061015  RH  093%=      5-min Rain = 0
KCR1 081555Z 36013KT M01/M02 A3036 RMK A01 T10061016  RH  093%=      5-min Rain = 0
KCR1 081556Z 36014KT M01/M02 A3036 RMK A01 T10061017  RH  093%=      5-min Rain = 0
KCR1 081557Z 36012KT M01/M02 A3036 RMK A01 T10061017  RH  093%=      5-min Rain = 0
KCR1 081558Z 00012KT M01/M02 A3036 RMK A01 T10061017  RH  093%=      5-min Rain = 0
KCR1 081559Z 36013KT M01/M02 A3036 RMK A01 T10061016  RH  093%=      5-min Rain = 0
KCR1 081600Z 36014KT M01/M02 A3036 RMK A01 T10061016  RH  093%=      5-min Rain = 0
KCR1 081601Z 00012KT M01/M02 A3036 RMK A01 T10061016  RH  093%=      5-min Rain = 0
KCR1 081602Z 36012KT M01/M02 A3036 RMK A01 T10061016  RH  093%=      5-min Rain = 0
KCR1 081603Z 36013KT M01/M02 A3036 RMK A01 T10061016  RH  093%=      5-min Rain = 0
KCR1 081604Z 36013KT M01/M02 A3036 RMK A01 T10061016  RH  093%=      5-min Rain = 0
KCR1 081605Z 36013KT M01/M02 A3036 RMK A01 T10061016  RH  093%=      5-min Rain = 0
KCR1 081606Z 36014KT M01/M02 A3035 RMK A01 T10061016  RH  093%=      5-min Rain = 0
KCR1 081607Z 36013KT M01/M02 A3036 RMK A01 T10061017  RH  093%=      5-min Rain = 0
KCR1 081608Z 36013KT M01/M02 A3035 RMK A01 T10071018  RH  092%=      5-min Rain = 0
KCR1 081609Z 00014KT M01/M02 A3036 RMK A01 T10071017  RH  093%=      5-min Rain = 0
KCR1 081610Z 36014KT M01/M02 A3036 RMK A01 T10071017  RH  093%=      5-min Rain = 0
KCR1 081611Z 36015KT M01/M02 A3036 RMK A01 T10071017  RH  093%=      5-min Rain = 0
KCR1 081612Z 36013KT M01/M02 A3036 RMK A01 T10071018  RH  092%=      5-min Rain = 0
KCR1 081613Z 36012KT M01/M02 A3036 RMK A01 T10071017  RH  093%=      5-min Rain = 0
KCR1 081614Z 36015KT M01/M02 A3036 RMK A01 T10071017  RH  093%=      5-min Rain = 0
KCR1 081615Z 36013KT M01/M02 A3036 RMK A01 T10071017  RH  093%=      5-min Rain = 0
KCR1 081616Z 36017KT M01/M02 A3036 RMK A01 T10071017  RH  093%=      5-min Rain = 0
KCR1 081617Z 36013KT M01/M02 A3036 RMK A01 T10071018  RH  093%=      5-min Rain = 0
KCR1 081618Z 35013KT M01/M02 A3036 RMK A01 T10071018  RH  093%=      5-min Rain = 0
KCR1 081619Z 36014KT M01/M02 A3036 RMK A01 T10071017  RH  093%=      5-min Rain = 0
KCR1 081620Z 36014KT M01/M02 A3036 RMK A01 T10071017  RH  093%=      5-min Rain = 0
KCR1 081621Z 36013KT M01/M02 A3036 RMK A01 T10071017  RH  093%=      5-min Rain = 0
KCR1 081622Z 36012KT M01/M02 A3036 RMK A01 T10071017  RH  093%=      5-min Rain = 0
KCR1 081623Z 35014KT M01/M02 A3036 RMK A01 T10071016  RH  094%=      5-min Rain = 0
KCR1 081624Z 35012KT M01/M02 A3036 RMK A01 T10071016  RH  094%=      5-min Rain = 0
KCR1 081625Z 35014KT M01/M02 A3036 RMK A01 T10071016  RH  094%=      5-min Rain = 0
KCR1 081626Z 35011KT M01/M02 A3036 RMK A01 T10071015  RH  094%=      5-min Rain = 0
KCR1 081627Z 35012KT M01/M02 A3036 RMK A01 T10071015  RH  094%=      5-min Rain = 0
KCR1 081628Z 35013KT M01/M02 A3036 RMK A01 T10071015  RH  095%=      5-min Rain = 0
KCR1 081629Z 35012KT M01/M02 A3036 RMK A01 T10071015  RH  095%=      5-min Rain = 0
KCR1 081630Z 35012KT M01/M02 A3036 RMK A01 T10071015  RH  095%=      5-min Rain = 0
KCR1 081631Z 35013KT M01/M01 A3036 RMK A01 T10071014  RH  095%=      5-min Rain = 0
KCR1 081632Z 35014KT M01/M02 A3036 RMK A01 T10081015  RH  095%=      5-min Rain = 0
KCR1 081633Z 35012KT M01/M02 A3036 RMK A01 T10081015  RH  095%=      5-min Rain = 0
KCR1 081634Z 35012KT M01/M02 A3036 RMK A01 T10071015  RH  095%=      5-min Rain = 0
KCR1 081635Z 35013KT M01/M02 A3036 RMK A01 T10071015  RH  095%=      5-min Rain = 0
KCR1 081636Z 35012KT M01/M02 A3036 RMK A01 T10071015  RH  094%=      5-min Rain = 0
KCR1 081637Z 35012KT M01/M02 A3036 RMK A01 T10071015  RH  094%=      5-min Rain = 0
KCR1 081638Z 35010KT M01/M02 A3036 RMK A01 T10071015  RH  094%=      5-min Rain = 0
KCR1 081639Z 35011KT M01/M01 A3036 RMK A01 T10071014  RH  095%=      5-min Rain = 0
KCR1 081640Z 35011KT M01/M01 A3036 RMK A01 T10061014  RH  095%=      5-min Rain = 0
KCR1 081641Z 34011KT M01/M01 A3036 RMK A01 T10061014  RH  095%=      5-min Rain = 0
KCR1 081642Z 34012KT M01/M01 A3036 RMK A01 T10061014  RH  095%=      5-min Rain = 0
KCR1 081643Z 34012KT M01/M01 A3036 RMK A01 T10061014  RH  094%=      5-min Rain = 0
KCR1 081644Z 34011KT M01/M01 A3036 RMK A01 T10061014  RH  094%=      5-min Rain = 0
KCR1 081645Z 34012KT M01/M01 A3036 RMK A01 T10061014  RH  094%=      5-min Rain = 0
KCR1 081646Z 34012KT M01/M01 A3036 RMK A01 T10061014  RH  094%=      5-min Rain = 0
KCR1 081647Z 34010KT M01/M01 A3036 RMK A01 T10061014  RH  095%=      5-min Rain = 0
KCR1 081648Z 34012KT M01/M01 A3036 RMK A01 T10061013  RH  095%=      5-min Rain = 0
KCR1 081649Z 33014KT M01/M01 A3036 RMK A01 T10061013  RH  095%=      5-min Rain = 0
KCR1 081650Z 34013KT M01/M01 A3036 RMK A01 T10061014  RH  094%=      5-min Rain = 0
KCR1 081651Z 34012KT M01/M01 A3036 RMK A01 T10061014  RH  094%=      5-min Rain = 0
KCR1 081652Z 34012KT M01/M01 A3036 RMK A01 T10061014  RH  094%=      5-min Rain = 0
KCR1 081653Z 34013KT M01/M01 A3036 RMK A01 T10061014  RH  094%=      5-min Rain = 0
KCR1 081654Z 34012KT M01/M01 A3036 RMK A01 T10061014  RH  094%=      5-min Rain = 0
KCR1 081655Z 34012KT M01/M01 A3036 RMK A01 T10061014  RH  094%=      5-min Rain = 0
KCR1 081656Z 34010KT M01/M01 A3036 RMK A01 T10061014  RH  094%=      5-min Rain = 0
KCR1 081657Z 34010KT M01/M01 A3036 RMK A01 T10051013  RH  094%=      5-min Rain = 0
KCR1 081658Z 34012KT M01/M01 A3036 RMK A01 T10051013  RH  095%=      5-min Rain = 0
KCR1 081659Z 34011KT M01/M01 A3036 RMK A01 T10051013  RH  095%=      5-min Rain = 0
KCR1 081700Z 35013KT M01/M01 A3036 RMK A01 T10051013  RH  095%=      5-min Rain = 0
KCR1 081701Z 34014KT M01/M01 A3036 RMK A01 T10051012  RH  095%=      5-min Rain = 0
KCR1 081702Z 35013G18KT M01/M01 A3036 RMK A01 T10061013  RH  095%=      5-min Rain = 0
KCR1 081703Z 35015KT M01/M01 A3036 RMK A01 T10061014  RH  095%=      5-min Rain = 0
KCR1 081704Z 35014KT M01/M02 A3036 RMK A01 T10071015  RH  094%=      5-min Rain = 0
KCR1 081705Z 35013KT M01/M02 A3036 RMK A01 T10071016  RH  094%=      5-min Rain = 0
KCR1 081706Z 35014KT M01/M02 A3036 RMK A01 T10081017  RH  093%=      5-min Rain = 0
KCR1 081707Z 35014KT M01/M02 A3036 RMK A01 T10081017  RH  093%=      5-min Rain = 0
KCR1 081708Z 35015KT M01/M02 A3036 RMK A01 T10081018  RH  093%=      5-min Rain = 0
KCR1 081709Z 35015KT M01/M02 A3036 RMK A01 T10081019  RH  093%=      5-min Rain = 0
KCR1 081710Z 35013KT M01/M02 A3036 RMK A01 T10081019  RH  093%=      5-min Rain = 0
KCR1 081711Z 35013KT M01/M02 A3036 RMK A01 T10081019  RH  093%=      5-min Rain = 0
KCR1 081712Z 35012KT M01/M02 A3036 RMK A01 T10081018  RH  093%=      5-min Rain = 0
KCR1 081713Z 35014KT M01/M02 A3036 RMK A01 T10081017  RH  093%=      5-min Rain = 0
KCR1 081714Z 35014KT M01/M02 A3036 RMK A01 T10081017  RH  093%=      5-min Rain = 0
KCR1 081715Z 34014KT M01/M02 A3036 RMK A01 T10081017  RH  093%=      5-min Rain = 0
KCR1 081716Z 35014KT M01/M02 A3036 RMK A01 T10081017  RH  093%=      5-min Rain = 0
KCR1 081717Z 35013KT M01/M02 A3036 RMK A01 T10071017  RH  093%=      5-min Rain = 0
KCR1 081718Z 35011KT M01/M02 A3036 RMK A01 T10071016  RH  094%=      5-min Rain = 0
KCR1 081719Z 34011KT M01/M02 A3036 RMK A01 T10071015  RH  094%=      5-min Rain = 0
KCR1 081720Z 35011KT M01/M02 A3036 RMK A01 T10071015  RH  094%=      5-min Rain = 0
KCR1 081721Z 35010KT M01/M02 A3036 RMK A01 T10071015  RH  095%=      5-min Rain = 0
KCR1 081722Z 35012KT M01/M01 A3036 RMK A01 T10071014  RH  095%=      5-min Rain = 0
KCR1 081723Z 35013KT M01/M02 A3036 RMK A01 T10071015  RH  095%=      5-min Rain = 0
KCR1 081724Z 35013KT M01/M02 A3036 RMK A01 T10071015  RH  095%=      5-min Rain = 0
KCR1 081725Z 36012KT M01/M02 A3036 RMK A01 T10071015  RH  094%=      5-min Rain = 0
KCR1 081726Z 35011KT M01/M02 A3036 RMK A01 T10071015  RH  094%=      5-min Rain = 0
KCR1 081727Z 35010KT M01/M02 A3036 RMK A01 T10071016  RH  094%=      5-min Rain = 0
KCR1 081728Z 36012KT M01/M02 A3036 RMK A01 T10071015  RH  094%=      5-min Rain = 0
KCR1 081729Z 35012KT M01/M02 A3036 RMK A01 T10071016  RH  094%=      5-min Rain = 0
KCR1 081730Z 35012KT M01/M02 A3036 RMK A01 T10071016  RH  094%=      5-min Rain = 0
KCR1 081731Z 35011KT M01/M02 A3036 RMK A01 T10071016  RH  094%=      5-min Rain = 0
KCR1 081732Z 35012KT M01/M02 A3036 RMK A01 T10071016  RH  094%=      5-min Rain = 0
KCR1 081733Z 35012KT M01/M02 A3036 RMK A01 T10071016  RH  094%=      5-min Rain = 0
KCR1 081734Z 35010KT M01/M02 A3036 RMK A01 T10071016  RH  094%=      5-min Rain = 0
KCR1 081735Z 35010KT M01/M02 A3036 RMK A01 T10071016  RH  094%=      5-min Rain = 0
KCR1 081736Z 35011KT M01/M02 A3036 RMK A01 T10071015  RH  094%=      5-min Rain = 0
KCR1 081737Z 34010KT M01/M02 A3036 RMK A01 T10071015  RH  094%=      5-min Rain = 0
KCR1 081738Z 35010KT M01/M02 A3036 RMK A01 T10071015  RH  094%=      5-min Rain = 0
KCR1 081739Z 35010KT M01/M02 A3036 RMK A01 T10071015  RH  094%=      5-min Rain = 0
KCR1 081740Z 35009KT M01/M02 A3036 RMK A01 T10071015  RH  095%=      5-min Rain = 0
KCR1 081741Z 35008KT M01/M02 A3036 RMK A01 T10071015  RH  095%=      5-min Rain = 0
KCR1 081742Z 34009KT M01/M01 A3035 RMK A01 T10071014  RH  095%=      5-min Rain = 0
KCR1 081743Z 34009KT M01/M01 A3035 RMK A01 T10061013  RH  095%=      5-min Rain = 0
KCR1 081744Z 34009KT M01/M01 A3035 RMK A01 T10071014  RH  095%=      5-min Rain = 0
KCR1 081745Z 34008KT M01/M01 A3035 RMK A01 T10071014  RH  095%=      5-min Rain = 0
KCR1 081746Z 34008KT M01/M01 A3035 RMK A01 T10061013  RH  095%=      5-min Rain = 0
KCR1 081747Z 34008KT M01/M01 A3035 RMK A01 T10071013  RH  095%=      5-min Rain = 0
KCR1 081748Z 34007KT M01/M01 A3035 RMK A01 T10071013  RH  095%=      5-min Rain = 0
KCR1 081749Z 33007KT M01/M01 A3035 RMK A01 T10071013  RH  096%=      5-min Rain = 0
KCR1 081750Z 33008KT M01/M01 A3035 RMK A01 T10061012  RH  096%=      5-min Rain = 0
KCR1 081751Z 33009KT M01/M01 A3035 RMK A01 T10061012  RH  096%=      5-min Rain = 0
KCR1 081752Z 33009KT M01/M01 A3035 RMK A01 T10061012  RH  096%=      5-min Rain = 0
KCR1 081753Z 33007KT M01/M01 A3035 RMK A01 T10061012  RH  096%=      5-min Rain = 0
KCR1 081754Z 33006KT M01/M01 A3035 RMK A01 T10061012  RH  096%=      5-min Rain = 0
KCR1 081755Z 33009KT M01/M01 A3035 RMK A01 T10061012  RH  096%=      5-min Rain = 0
KCR1 081756Z 33008KT M01/M01 A3035 RMK A01 T10061012  RH  096%=      5-min Rain = 0
KCR1 081757Z 33006KT M01/M01 A3035 RMK A01 T10061013  RH  095%=      5-min Rain = 0
KCR1 081758Z 32007KT M01/M01 A3035 RMK A01 T10061012  RH  096%=      5-min Rain = 0
KCR1 081759Z 33006KT M01/M01 A3035 RMK A01 T10061012  RH  096%=      5-min Rain = 0
KCR1 081800Z 32007KT M01/M01 A3035 RMK A01 T10051011  RH  096%=      5-min Rain = 0
KCR1 081801Z 32007KT M01/M01 A3035 RMK A01 T10051011  RH  096%=      5-min Rain = 0
KCR1 081802Z 32008KT M01/M01 A3035 RMK A01 T10051011  RH  096%=      5-min Rain = 0
KCR1 081803Z 32008KT M01/M01 A3035 RMK A01 T10061012  RH  095%=      5-min Rain = 0
KCR1 081804Z 32008KT M01/M01 A3035 RMK A01 T10051012  RH  095%=      5-min Rain = 0
KCR1 081805Z 32007KT M01/M01 A3035 RMK A01 T10051012  RH  095%=      5-min Rain = 0
KCR1 081806Z 32007KT M00/M01 A3035 RMK A01 T10041012  RH  095%=      5-min Rain = 0
KCR1 081807Z 32008KT M00/M01 A3035 RMK A01 T10041012  RH  094%=      5-min Rain = 0
KCR1 081808Z 33007KT M00/M01 A3035 RMK A01 T10041012  RH  094%=      5-min Rain = 0
KCR1 081809Z 33007KT M00/M01 A3034 RMK A01 T10031012  RH  094%=      5-min Rain = 0
KCR1 081810Z 33007KT M00/M01 A3034 RMK A01 T10031012  RH  093%=      5-min Rain = 0
KCR1 081811Z 33007KT M00/M01 A3034 RMK A01 T10031013  RH  093%=      5-min Rain = 0
KCR1 081812Z 33006KT M00/M01 A3034 RMK A01 T10021013  RH  092%=      5-min Rain = 0
KCR1 081813Z 33006KT M00/M01 A3034 RMK A01 T10021013  RH  092%=      5-min Rain = 0
KCR1 081814Z 33006KT M00/M01 A3034 RMK A01 T10011012  RH  093%=      5-min Rain = 0
KCR1 081815Z 32006KT 00/01 A3034 RMK A01 T00-00-11  RH  093%=      5-min Rain = 0
KCR1 081816Z 33006KT 00/01 A3034 RMK A01 T00-00-11  RH  092%=      5-min Rain = 0
KCR1 081817Z 33005KT 00/01 A3034 RMK A01 T00-00-12  RH  092%=      5-min Rain = 0
KCR1 081818Z 33005KT 00/01 A3034 RMK A01 T00-00-12  RH  092%=      5-min Rain = 0
KCR1 081819Z 33006KT 00/01 A3034 RMK A01 T00000-11  RH  092%=      5-min Rain = 0
KCR1 081820Z 33005KT 00/M01 A3034 RMK A01 T00011011  RH  092%=      5-min Rain = 0
KCR1 081821Z 33005KT 00/M01 A3034 RMK A01 T00011011  RH  092%=      5-min Rain = 0
KCR1 081822Z 33007KT 00/M01 A3034 RMK A01 T00011010  RH  092%=      5-min Rain = 0
KCR1 081823Z 33006KT 00/M01 A3034 RMK A01 T00011011  RH  092%=      5-min Rain = 0
KCR1 081824Z 33006KT 00/M01 A3034 RMK A01 T00011011  RH  092%=      5-min Rain = 0
KCR1 081825Z 33006KT 00/M01 A3034 RMK A01 T00011011  RH  092%=      5-min Rain = 0
KCR1 081826Z 33006KT 00/M01 A3034 RMK A01 T00021011  RH  091%=      5-min Rain = 0
KCR1 081827Z 32006KT 00/M01 A3034 RMK A01 T00011012  RH  091%=      5-min Rain = 0
KCR1 081828Z 32005KT 00/M01 A3034 RMK A01 T00021012  RH  091%=      5-min Rain = 0
KCR1 081829Z 33006KT 00/M01 A3034 RMK A01 T00021010  RH  091%=      5-min Rain = 0
KCR1 081830Z 32005KT 00/M01 A3034 RMK A01 T00031010  RH  091%=      5-min Rain = 0
KCR1 081831Z 33006KT 00/M01 A3033 RMK A01 T00031010  RH  091%=      5-min Rain = 0
KCR1 081832Z 32005KT 00/M01 A3033 RMK A01 T00041010  RH  091%=      5-min Rain = 0
KCR1 081833Z 33006KT 00/M01 A3033 RMK A01 T00041010  RH  091%=      5-min Rain = 0
KCR1 081834Z 32006KT 00/M01 A3033 RMK A01 T00041010  RH  090%=      5-min Rain = 0
KCR1 081835Z 32006KT 00/M01 A3033 RMK A01 T00041010  RH  090%=      5-min Rain = 0
KCR1 081836Z 32006KT 01/M01 A3033 RMK A01 T00051011  RH  089%=      5-min Rain = 0
KCR1 081837Z 32007KT 01/M01 A3033 RMK A01 T00051011  RH  089%=      5-min Rain = 0
KCR1 081838Z 31005KT 01/M01 A3033 RMK A01 T00051012  RH  089%=      5-min Rain = 0
KCR1 081839Z 31005KT 01/M01 A3033 RMK A01 T00061010  RH  089%=      5-min Rain = 0
KCR1 081840Z 31006KT 01/M01 A3033 RMK A01 T00061010  RH  089%=      5-min Rain = 0
KCR1 081841Z 31006KT 01/M01 A3033 RMK A01 T00061010  RH  089%=      5-min Rain = 0
KCR1 081842Z 31006KT 01/M01 A3033 RMK A01 T00061011  RH  088%=      5-min Rain = 0
KCR1 081843Z 33007KT 01/M01 A3033 RMK A01 T00071011  RH  088%=      5-min Rain = 0
KCR1 081844Z 32006KT 01/M01 A3032 RMK A01 T00071011  RH  088%=      5-min Rain = 0
KCR1 081845Z 33006KT 01/M01 A3032 RMK A01 T00071010  RH  088%=      5-min Rain = 0
KCR1 081846Z 32006KT 01/M01 A3032 RMK A01 T00081010  RH  088%=      5-min Rain = 0
KCR1 081847Z 32006KT 01/M01 A3032 RMK A01 T00081010  RH  088%=      5-min Rain = 0
KCR1 081848Z 32007KT 01/M01 A3032 RMK A01 T00081010  RH  088%=      5-min Rain = 0
KCR1 081849Z 32006KT 01/M01 A3032 RMK A01 T00081011  RH  087%=      5-min Rain = 0
KCR1 081850Z 33006KT 01/M01 A3032 RMK A01 T00081011  RH  087%=      5-min Rain = 0
KCR1 081851Z 33006KT 01/M01 A3032 RMK A01 T00091011  RH  087%=      5-min Rain = 0
KCR1 081852Z 33008KT 01/M01 A3032 RMK A01 T00091010  RH  087%=      5-min Rain = 0
KCR1 081853Z 33007KT 01/M01 A3032 RMK A01 T00101010  RH  087%=      5-min Rain = 0
KCR1 081854Z 33007KT 01/M01 A3032 RMK A01 T00101010  RH  086%=      5-min Rain = 0
KCR1 081855Z 33007KT 01/M01 A3032 RMK A01 T00111009  RH  086%=      5-min Rain = 0
KCR1 081856Z 33007KT 01/M01 A3032 RMK A01 T00111010  RH  086%=      5-min Rain = 0
KCR1 081857Z 33008KT 01/M01 A3031 RMK A01 T00121010  RH  086%=      5-min Rain = 0
KCR1 081858Z 33008KT 01/M01 A3031 RMK A01 T00121011  RH  085%=      5-min Rain = 0
KCR1 081859Z 33006KT 01/M01 A3031 RMK A01 T00121012  RH  084%=      5-min Rain = 0
KCR1 081900Z 33006KT 01/M01 A3031 RMK A01 T00121011  RH  085%=      5-min Rain = 0
KCR1 081901Z 33008KT 01/M01 A3031 RMK A01 T00131011  RH  084%=      5-min Rain = 0
KCR1 081902Z 33008KT 01/M01 A3031 RMK A01 T00131013  RH  083%=      5-min Rain = 0
KCR1 081903Z 33007KT 01/M01 A3031 RMK A01 T00131013  RH  083%=      5-min Rain = 0
KCR1 081904Z 34008KT 01/M01 A3031 RMK A01 T00131011  RH  084%=      5-min Rain = 0
KCR1 081905Z 34006KT 01/M01 A3031 RMK A01 T00141011  RH  084%=      5-min Rain = 0
KCR1 081906Z 33007KT 02/M01 A3031 RMK A01 T00151008  RH  085%=      5-min Rain = 0
KCR1 081907Z 33008KT 02/M01 A3031 RMK A01 T00151009  RH  084%=      5-min Rain = 0
KCR1 081908Z 33007KT 02/M01 A3031 RMK A01 T00151010  RH  083%=      5-min Rain = 0
KCR1 081909Z 33007KT 02/M01 A3031 RMK A01 T00161008  RH  084%=      5-min Rain = 0
KCR1 081910Z 33009KT 02/M01 A3031 RMK A01 T00161009  RH  084%=      5-min Rain = 0
KCR1 081911Z 34009KT 02/M01 A3031 RMK A01 T00161011  RH  082%=      5-min Rain = 0
KCR1 081912Z 34007KT 02/M01 A3031 RMK A01 T00161013  RH  082%=      5-min Rain = 0
KCR1 081913Z 34009KT 02/M01 A3031 RMK A01 T00171009  RH  083%=      5-min Rain = 0.01
KCR1 081914Z 33009KT 02/M01 A3031 RMK A01 T00171010  RH  082%=      5-min Rain = 0
KCR1 081915Z 33010KT 02/M01 A3031 RMK A01 T00181012  RH  081%=      5-min Rain = 0
KCR1 081916Z 33011KT 02/M01 A3031 RMK A01 T00181014  RH  079%=      5-min Rain = 0
KCR1 081917Z 34011KT 02/M02 A3031 RMK A01 T00171016  RH  078%=      5-min Rain = 0.01
KCR1 081918Z 33010KT 02/M02 A3031 RMK A01 T00181016  RH  078%=      5-min Rain = 0
KCR1 081919Z 34011KT 02/M02 A3031 RMK A01 T00181016  RH  078%=      5-min Rain = 0
KCR1 081920Z 33009KT 02/M01 A3031 RMK A01 T00191014  RH  079%=      5-min Rain = 0
KCR1 081921Z 33009KT 02/M01 A3031 RMK A01 T00191011  RH  080%=      5-min Rain = 0.01
KCR1 081922Z 33010KT 02/M01 A3031 RMK A01 T00191014  RH  078%=      5-min Rain = 0
KCR1 081923Z 33012KT 02/M02 A3031 RMK A01 T00191016  RH  077%=      5-min Rain = 0
KCR1 081924Z 33013KT 02/M02 A3031 RMK A01 T00191018  RH  076%=      5-min Rain = 0
KCR1 081925Z 33011KT 02/M02 A303 RMK A01 T00191020  RH  075%=      5-min Rain = 0.01
KCR1 081926Z 34010KT 02/M02 A303 RMK A01 T00191018  RH  076%=      5-min Rain = 0
KCR1 081927Z 33011KT 02/M02 A303 RMK A01 T00191016  RH  078%=      5-min Rain = 0
KCR1 081928Z 33012KT 02/M02 A303 RMK A01 T00191016  RH  077%=      5-min Rain = 0
KCR1 081929Z 33014KT 02/M02 A303 RMK A01 T00191020  RH  075%=      5-min Rain = 0.01
KCR1 081930Z 34012KT 02/M02 A303 RMK A01 T00191022  RH  074%=      5-min Rain = 0
KCR1 081931Z 33009KT 02/M02 A303 RMK A01 T00201020  RH  075%=      5-min Rain = 0
KCR1 081932Z 33012KT 02/M02 A303 RMK A01 T00201015  RH  077%=      5-min Rain = 0.01
KCR1 081933Z 33011KT 02/M02 A303 RMK A01 T00211018  RH  076%=      5-min Rain = 0
KCR1 081934Z 34009KT 02/M02 A303 RMK A01 T00211018  RH  076%=      5-min Rain = 0
KCR1 081935Z 33009KT 02/M02 A303 RMK A01 T00211016  RH  076%=      5-min Rain = 0
KCR1 081936Z 33010KT 02/M02 A303 RMK A01 T00211016  RH  076%=      5-min Rain = 0.01
KCR1 081937Z 34011KT 02/M02 A303 RMK A01 T00211017  RH  076%=      5-min Rain = 0
KCR1 081938Z 34012KT 02/M02 A303 RMK A01 T00211017  RH  076%=      5-min Rain = 0
KCR1 081939Z 33012KT 02/M02 A303 RMK A01 T00211018  RH  076%=      5-min Rain = 0
KCR1 081940Z 33011KT 02/M02 A303 RMK A01 T00211019  RH  075%=      5-min Rain = 0
KCR1 081941Z 34012KT 02/M02 A303 RMK A01 T00211018  RH  075%=      5-min Rain = 0.01
KCR1 081942Z 33010KT 02/M02 A303 RMK A01 T00211017  RH  076%=      5-min Rain = 0
KCR1 081943Z 34012KT 02/M02 A303 RMK A01 T00221015  RH  077%=      5-min Rain = 0
KCR1 081944Z 33011KT 02/M02 A303 RMK A01 T00221016  RH  076%=      5-min Rain = 0
KCR1 081945Z 33012KT 02/M02 A303 RMK A01 T00221016  RH  076%=      5-min Rain = 0
KCR1 081946Z 33012KT 02/M02 A3029 RMK A01 T00221018  RH  075%=      5-min Rain = 0.01
KCR1 081947Z 33012KT 02/M02 A3029 RMK A01 T00221018  RH  074%=      5-min Rain = 0
KCR1 081948Z 33012KT 02/M02 A3029 RMK A01 T00221017  RH  075%=      5-min Rain = 0
KCR1 081949Z 33011KT 02/M02 A3029 RMK A01 T00221016  RH  076%=      5-min Rain = 0
KCR1 081950Z 33010KT 02/M02 A3029 RMK A01 T00221016  RH  076%=      5-min Rain = 0
KCR1 081951Z 33010KT 02/M02 A3029 RMK A01 T00221016  RH  076%=      5-min Rain = 0
KCR1 081952Z 33010KT 02/M01 A3029 RMK A01 T00221014  RH  077%=      5-min Rain = 0.01
KCR1 081953Z 34009KT 02/M01 A3029 RMK A01 T00231012  RH  078%=      5-min Rain = 0
KCR1 081954Z 33009KT 02/M01 A3029 RMK A01 T00231010  RH  079%=      5-min Rain = 0
KCR1 081955Z 33012KT 02/M01 A3029 RMK A01 T00231012  RH  078%=      5-min Rain = 0
KCR1 081956Z 34012KT 02/M02 A3029 RMK A01 T00231016  RH  075%=      5-min Rain = 0
KCR1 081957Z 33010KT 02/M02 A3029 RMK A01 T00241016  RH  075%=      5-min Rain = 0
KCR1 081958Z 33011KT 02/M01 A3029 RMK A01 T00241014  RH  076%=      5-min Rain = 0
KCR1 081959Z 33014KT 02/M02 A3029 RMK A01 T00241019  RH  073%=      5-min Rain = 0.01
KCR1 082000Z 33013KT 02/M02 A3029 RMK A01 T00241023  RH  071%=      5-min Rain = 0
KCR1 082001Z 33012KT 02/M02 A3029 RMK A01 T00231023  RH  071%=      5-min Rain = 0
KCR1 082002Z 34011KT 02/M02 A3029 RMK A01 T00231021  RH  073%=      5-min Rain = 0
KCR1 082003Z 34011KT 02/M02 A3029 RMK A01 T00241015  RH  076%=      5-min Rain = 0
KCR1 082004Z 34013KT 03/M02 A3029 RMK A01 T00251015  RH  075%=      5-min Rain = 0
KCR1 082005Z 34014KT 02/M02 A3029 RMK A01 T00241021  RH  072%=      5-min Rain = 0
KCR1 082006Z 34012KT 02/M02 A3029 RMK A01 T00241021  RH  072%=      5-min Rain = 0.01
KCR1 082007Z 33014KT 02/M02 A3029 RMK A01 T00241018  RH  074%=      5-min Rain = 0
KCR1 082008Z 33014KT 02/M02 A3029 RMK A01 T00241021  RH  072%=      5-min Rain = 0
KCR1 082009Z 33013KT 02/M02 A3029 RMK A01 T00241023  RH  071%=      5-min Rain = 0
KCR1 082010Z 34014KT 02/M02 A3029 RMK A01 T00241020  RH  073%=      5-min Rain = 0
KCR1 082011Z 34010KT 02/M02 A3029 RMK A01 T00241018  RH  074%=      5-min Rain = 0
KCR1 082012Z 34013KT 02/M02 A3029 RMK A01 T00241015  RH  075%=      5-min Rain = 0
KCR1 082013Z 34011KT 03/M02 A3029 RMK A01 T00251017  RH  074%=      5-min Rain = 0
KCR1 082014Z 33011KT 03/M02 A3029 RMK A01 T00251016  RH  074%=      5-min Rain = 0
KCR1 082015Z 34013KT 03/M02 A3029 RMK A01 T00251017  RH  074%=      5-min Rain = 0
KCR1 082016Z 34013KT 03/M02 A3028 RMK A01 T00251019  RH  073%=      5-min Rain = 0
KCR1 082017Z 34012KT 03/M02 A3028 RMK A01 T00251021  RH  072%=      5-min Rain = 0
KCR1 082018Z 34012KT 02/M02 A3028 RMK A01 T00241019  RH  073%=      5-min Rain = 0
KCR1 082019Z 34013KT 02/M02 A3028 RMK A01 T00241021  RH  072%=      5-min Rain = 0
KCR1 082020Z 33014KT 02/M02 A3028 RMK A01 T00241020  RH  072%=      5-min Rain = 0
KCR1 082021Z 34012KT 03/M02 A3028 RMK A01 T00251021  RH  072%=      5-min Rain = 0
KCR1 082022Z 34014KT 03/M02 A3028 RMK A01 T00251023  RH  071%=      5-min Rain = 0
KCR1 082023Z 34013KT 02/M02 A3028 RMK A01 T00241023  RH  071%=      5-min Rain = 0
KCR1 082024Z 34013KT 02/M02 A3028 RMK A01 T00241023  RH  071%=      5-min Rain = 0
KCR1 082025Z 34010KT 03/M02 A3028 RMK A01 T00251021  RH  072%=      5-min Rain = 0
KCR1 082026Z 33011KT 03/M02 A3028 RMK A01 T00251020  RH  072%=      5-min Rain = 0
KCR1 082027Z 34011KT 03/M02 A3028 RMK A01 T00251021  RH  072%=      5-min Rain = 0
KCR1 082028Z 34012KT 03/M02 A3028 RMK A01 T00251020  RH  072%=      5-min Rain = 0
KCR1 082029Z 34012KT 03/M02 A3028 RMK A01 T00251023  RH  070%=      5-min Rain = 0
KCR1 082030Z 34013KT 03/M02 A3028 RMK A01 T00251023  RH  071%=      5-min Rain = 0
KCR1 082031Z 34011KT 03/M02 A3028 RMK A01 T00251022  RH  071%=      5-min Rain = 0
KCR1 082032Z 35010KT 03/M02 A3028 RMK A01 T00251021  RH  072%=      5-min Rain = 0
KCR1 082033Z 34012KT 03/M02 A3028 RMK A01 T00261019  RH  072%=      5-min Rain = 0
KCR1 082034Z 33012KT 03/M02 A3028 RMK A01 T00261022  RH  071%=      5-min Rain = 0
KCR1 082035Z 33012KT 03/M02 A3028 RMK A01 T00261023  RH  070%=      5-min Rain = 0
KCR1 082036Z 33012KT 03/M02 A3028 RMK A01 T00261024  RH  070%=      5-min Rain = 0
KCR1 082037Z 33013KT 03/M03 A3028 RMK A01 T00261027  RH  068%=      5-min Rain = 0
KCR1 082038Z 34012KT 03/M03 A3028 RMK A01 T00261028  RH  068%=      5-min Rain = 0
KCR1 082039Z 34011KT 03/M02 A3028 RMK A01 T00251022  RH  071%=      5-min Rain = 0
KCR1 082040Z 34012KT 03/M02 A3028 RMK A01 T00261021  RH  071%=      5-min Rain = 0
KCR1 082041Z 34010KT 03/M02 A3028 RMK A01 T00261022  RH  071%=      5-min Rain = 0
KCR1 082042Z 33009KT 03/M02 A3028 RMK A01 T00261019  RH  072%=      5-min Rain = 0
KCR1 082043Z 33009KT 03/M02 A3028 RMK A01 T00271020  RH  071%=      5-min Rain = 0
KCR1 082044Z 33010KT 03/M02 A3028 RMK A01 T00271020  RH  072%=      5-min Rain = 0
KCR1 082045Z 33010KT 03/M02 A3028 RMK A01 T00271020  RH  071%=      5-min Rain = 0
KCR1 082046Z 33012KT 03/M02 A3028 RMK A01 T00271023  RH  070%=      5-min Rain = 0
KCR1 082047Z 33010KT 03/M03 A3028 RMK A01 T00271025  RH  069%=      5-min Rain = 0
KCR1 082048Z 34010KT 03/M02 A3028 RMK A01 T00271021  RH  071%=      5-min Rain = 0
KCR1 082049Z 34012KT 03/M02 A3028 RMK A01 T00271024  RH  069%=      5-min Rain = 0
KCR1 082050Z 34011KT 03/M02 A3028 RMK A01 T00271023  RH  070%=      5-min Rain = 0
KCR1 082051Z 34010KT 03/M02 A3028 RMK A01 T00271023  RH  070%=      5-min Rain = 0
KCR1 082052Z 34010KT 03/M02 A3028 RMK A01 T00271020  RH  071%=      5-min Rain = 0
KCR1 082053Z 33010KT 03/M02 A3028 RMK A01 T00271022  RH  070%=      5-min Rain = 0
KCR1 082054Z 34010KT 03/M02 A3028 RMK A01 T00271023  RH  070%=      5-min Rain = 0
KCR1 082055Z 34011KT 03/M02 A3028 RMK A01 T00271023  RH  070%=      5-min Rain = 0
KCR1 082056Z 34011KT 03/M02 A3028 RMK A01 T00271023  RH  069%=      5-min Rain = 0
KCR1 082057Z 34011KT 03/M03 A3028 RMK A01 T00271025  RH  069%=      5-min Rain = 0
KCR1 082058Z 34011KT 03/M02 A3028 RMK A01 T00271023  RH  070%=      5-min Rain = 0
KCR1 082059Z 33012KT 03/M02 A3028 RMK A01 T00271021  RH  070%=      5-min Rain = 0
KCR1 082100Z 33012KT 03/M03 A3028 RMK A01 T00271026  RH  068%=      5-min Rain = 0
KCR1 082101Z 34010KT 03/M03 A3028 RMK A01 T00271027  RH  067%=      5-min Rain = 0
KCR1 082102Z 34009KT 03/M03 A3028 RMK A01 T00271027  RH  068%=      5-min Rain = 0
KCR1 082103Z 33010KT 03/M03 A3028 RMK A01 T00271026  RH  068%=      5-min Rain = 0
KCR1 082104Z 35009KT 03/M03 A3028 RMK A01 T00271025  RH  068%=      5-min Rain = 0
KCR1 082105Z 34010KT 03/M03 A3028 RMK A01 T00271028  RH  067%=      5-min Rain = 0
KCR1 082106Z 35009KT 03/M03 A3028 RMK A01 T00271028  RH  067%=      5-min Rain = 0
KCR1 082107Z 34010KT 03/M03 A3028 RMK A01 T00271027  RH  067%=      5-min Rain = 0
KCR1 082108Z 35010KT 03/M03 A3028 RMK A01 T00281028  RH  067%=      5-min Rain = 0
KCR1 082109Z 34010KT 03/M03 A3028 RMK A01 T00281028  RH  067%=      5-min Rain = 0
KCR1 082110Z 34009KT 03/M03 A3028 RMK A01 T00281027  RH  067%=      5-min Rain = 0
KCR1 082111Z 34008KT 03/M02 A3028 RMK A01 T00281022  RH  070%=      5-min Rain = 0
KCR1 082112Z 34008KT 03/M02 A3028 RMK A01 T00281023  RH  069%=      5-min Rain = 0
KCR1 082113Z 33008KT 03/M02 A3028 RMK A01 T00281024  RH  068%=      5-min Rain = 0
KCR1 082114Z 34007KT 03/M02 A3028 RMK A01 T00291023  RH  069%=      5-min Rain = 0
KCR1 082115Z 34006KT 03/M02 A3027 RMK A01 T00281020  RH  070%=      5-min Rain = 0
KCR1 082116Z 34008KT 03/M02 A3027 RMK A01 T00291020  RH  070%=      5-min Rain = 0
KCR1 082117Z 34008KT 03/M02 A3027 RMK A01 T00291024  RH  068%=      5-min Rain = 0
KCR1 082118Z 34008KT 03/M02 A3027 RMK A01 T00291024  RH  068%=      5-min Rain = 0
KCR1 082119Z 34008KT 03/M03 A3027 RMK A01 T00291025  RH  068%=      5-min Rain = 0
KCR1 082120Z 33008KT 03/M02 A3027 RMK A01 T00291022  RH  069%=      5-min Rain = 0
KCR1 082121Z 33009KT 03/M03 A3027 RMK A01 T00291029  RH  066%=      5-min Rain = 0
KCR1 082122Z 33009KT 03/M03 A3028 RMK A01 T00291029  RH  066%=      5-min Rain = 0
KCR1 082123Z 33010KT 03/M03 A3027 RMK A01 T00301029  RH  065%=      5-min Rain = 0
KCR1 082124Z 34010KT 03/M03 A3027 RMK A01 T00291032  RH  064%=      5-min Rain = 0
KCR1 082125Z 34010G15KT 03/M03 A3027 RMK A01 T00291030  RH  065%=      5-min Rain = 0
KCR1 082126Z 34013KT 03/M03 A3027 RMK A01 T00291032  RH  064%=      5-min Rain = 0
KCR1 082127Z 33010KT 03/M03 A3027 RMK A01 T00291034  RH  063%=      5-min Rain = 0
KCR1 082128Z 33009KT 03/M03 A3027 RMK A01 T00291032  RH  064%=      5-min Rain = 0
KCR1 082129Z 34010KT 03/M03 A3028 RMK A01 T00301031  RH  064%=      5-min Rain = 0
KCR1 082130Z 34009KT 03/M03 A3028 RMK A01 T00291029  RH  066%=      5-min Rain = 0
KCR1 082131Z 34009KT 03/M03 A3027 RMK A01 T00301028  RH  066%=      5-min Rain = 0
KCR1 082132Z 34009KT 03/M03 A3027 RMK A01 T00301029  RH  065%=      5-min Rain = 0
KCR1 082133Z 35008KT 03/M03 A3027 RMK A01 T00301030  RH  065%=      5-min Rain = 0
KCR1 082134Z 34008KT 03/M03 A3027 RMK A01 T00301028  RH  066%=      5-min Rain = 0
KCR1 082135Z 35008KT 03/M03 A3027 RMK A01 T00301025  RH  067%=      5-min Rain = 0
KCR1 082136Z 34009KT 03/M03 A3027 RMK A01 T00301029  RH  065%=      5-min Rain = 0
KCR1 082137Z 34010KT 03/M03 A3027 RMK A01 T00301029  RH  065%=      5-min Rain = 0
KCR1 082138Z 34010KT 03/M03 A3027 RMK A01 T00301031  RH  064%=      5-min Rain = 0
KCR1 082139Z 34009KT 03/M03 A3027 RMK A01 T00301028  RH  065%=      5-min Rain = 0
KCR1 082140Z 34009KT 03/M03 A3027 RMK A01 T00311031  RH  064%=      5-min Rain = 0
KCR1 082141Z 34010KT 03/M03 A3027 RMK A01 T00301031  RH  064%=      5-min Rain = 0
KCR1 082142Z 34011KT 03/M03 A3027 RMK A01 T00301031  RH  064%=      5-min Rain = 0
KCR1 082143Z 33009KT 03/M03 A3027 RMK A01 T00301032  RH  063%=      5-min Rain = 0
KCR1 082144Z 34008KT 03/M03 A3027 RMK A01 T00301030  RH  065%=      5-min Rain = 0
KCR1 082145Z 34009KT 03/M03 A3027 RMK A01 T00301028  RH  066%=      5-min Rain = 0
KCR1 082146Z 34010KT 03/M03 A3027 RMK A01 T00301028  RH  065%=      5-min Rain = 0
KCR1 082147Z 34008KT 03/M03 A3027 RMK A01 T00301027  RH  066%=      5-min Rain = 0
KCR1 082148Z 34008KT 03/M03 A3027 RMK A01 T00311025  RH  067%=      5-min Rain = 0
KCR1 082149Z 34008KT 03/M03 A3027 RMK A01 T00301025  RH  067%=      5-min Rain = 0
KCR1 082150Z 35009KT 03/M03 A3027 RMK A01 T00301027  RH  066%=      5-min Rain = 0
KCR1 082151Z 35010KT 03/M03 A3027 RMK A01 T00311027  RH  066%=      5-min Rain = 0
KCR1 082152Z 34010KT 03/M03 A3027 RMK A01 T00311028  RH  065%=      5-min Rain = 0
KCR1 082153Z 35009KT 03/M03 A3027 RMK A01 T00311027  RH  066%=      5-min Rain = 0
KCR1 082154Z 34009KT 03/M03 A3027 RMK A01 T00311025  RH  067%=      5-min Rain = 0
KCR1 082155Z 35011KT 03/M02 A3027 RMK A01 T00311023  RH  067%=      5-min Rain = 0
KCR1 082156Z 35012KT 03/M02 A3027 RMK A01 T00311023  RH  068%=      5-min Rain = 0
KCR1 082157Z 35011KT 03/M02 A3027 RMK A01 T00311024  RH  067%=      5-min Rain = 0
KCR1 082158Z 34009KT 03/M02 A3027 RMK A01 T00301021  RH  069%=      5-min Rain = 0
KCR1 082159Z 34010KT 03/M02 A3027 RMK A01 T00301019  RH  070%=      5-min Rain = 0
KCR1 082200Z 34010KT 03/M02 A3027 RMK A01 T00301021  RH  069%=      5-min Rain = 0
KCR1 082201Z 34011KT 03/M02 A3027 RMK A01 T00301024  RH  068%=      5-min Rain = 0
KCR1 082202Z 34009KT 03/M03 A3027 RMK A01 T00301025  RH  067%=      5-min Rain = 0
KCR1 082203Z 34009KT 03/M02 A3027 RMK A01 T00301023  RH  068%=      5-min Rain = 0
KCR1 082204Z 34007KT 03/M02 A3027 RMK A01 T00301023  RH  068%=      5-min Rain = 0
KCR1 082205Z 34008KT 03/M02 A3027 RMK A01 T00301022  RH  069%=      5-min Rain = 0
KCR1 082206Z 34006KT 03/M02 A3027 RMK A01 T00301022  RH  069%=      5-min Rain = 0
KCR1 082207Z 34007KT 03/M02 A3027 RMK A01 T00301021  RH  069%=      5-min Rain = 0
KCR1 082208Z 33007KT 03/M02 A3027 RMK A01 T00301022  RH  069%=      5-min Rain = 0
KCR1 082209Z 33006KT 03/M02 A3027 RMK A01 T00301019  RH  070%=      5-min Rain = 0
KCR1 082210Z 33005KT 03/M02 A3027 RMK A01 T00301018  RH  071%=      5-min Rain = 0
KCR1 082211Z 34006KT 03/M02 A3027 RMK A01 T00301015  RH  072%=      5-min Rain = 0
KCR1 082212Z 34006KT 03/M02 A3027 RMK A01 T00301019  RH  070%=      5-min Rain = 0
KCR1 082213Z 34006KT 03/M02 A3027 RMK A01 T00301018  RH  070%=      5-min Rain = 0
KCR1 082214Z 33007KT 03/M02 A3027 RMK A01 T00311018  RH  070%=      5-min Rain = 0
KCR1 082215Z 33007KT 03/M02 A3027 RMK A01 T00301021  RH  069%=      5-min Rain = 0
KCR1 082216Z 33006KT 03/M02 A3027 RMK A01 T00301020  RH  069%=      5-min Rain = 0
KCR1 082217Z 33007KT 03/M02 A3027 RMK A01 T00311020  RH  070%=      5-min Rain = 0
KCR1 082218Z 33007KT 03/M02 A3027 RMK A01 T00311023  RH  068%=      5-min Rain = 0
KCR1 082219Z 33007KT 03/M02 A3027 RMK A01 T00311024  RH  067%=      5-min Rain = 0
KCR1 082220Z 33008KT 03/M02 A3027 RMK A01 T00311024  RH  068%=      5-min Rain = 0
KCR1 082221Z 34006KT 03/M02 A3027 RMK A01 T00311023  RH  067%=      5-min Rain = 0
KCR1 082222Z 33006KT 03/M02 A3027 RMK A01 T00311019  RH  070%=      5-min Rain = 0
KCR1 082223Z 33007KT 03/M02 A3027 RMK A01 T00321022  RH  068%=      5-min Rain = 0
KCR1 082224Z 33007KT 03/M02 A3027 RMK A01 T00321022  RH  068%=      5-min Rain = 0
KCR1 082225Z 33006KT 03/M02 A3027 RMK A01 T00321022  RH  068%=      5-min Rain = 0
KCR1 082226Z 33007KT 03/M02 A3027 RMK A01 T00321023  RH  067%=      5-min Rain = 0
KCR1 082227Z 33007KT 03/M02 A3027 RMK A01 T00321024  RH  067%=      5-min Rain = 0
KCR1 082228Z 33007KT 03/M03 A3027 RMK A01 T00321025  RH  066%=      5-min Rain = 0
KCR1 082229Z 33006KT 03/M02 A3027 RMK A01 T00321022  RH  067%=      5-min Rain = 0
KCR1 082230Z 33006KT 03/M02 A3027 RMK A01 T00321022  RH  067%=      5-min Rain = 0
KCR1 082231Z 32006KT 03/M02 A3027 RMK A01 T00331021  RH  068%=      5-min Rain = 0
KCR1 082232Z 33005KT 03/M03 A3027 RMK A01 T00331025  RH  066%=      5-min Rain = 0
KCR1 082233Z 33007KT 03/M03 A3027 RMK A01 T00331025  RH  066%=      5-min Rain = 0
KCR1 082234Z 33007KT 03/M03 A3027 RMK A01 T00331028  RH  064%=      5-min Rain = 0
KCR1 082235Z 33006KT 03/M03 A3027 RMK A01 T00331028  RH  064%=      5-min Rain = 0
KCR1 082236Z 32006KT 03/M03 A3027 RMK A01 T00331025  RH  066%=      5-min Rain = 0
KCR1 082237Z 32005KT 03/M02 A3027 RMK A01 T00341023  RH  067%=      5-min Rain = 0
KCR1 082238Z 32006KT 03/M02 A3027 RMK A01 T00341020  RH  068%=      5-min Rain = 0
KCR1 082239Z 32006KT 03/M02 A3027 RMK A01 T00341022  RH  067%=      5-min Rain = 0
KCR1 082240Z 32007KT 03/M02 A3027 RMK A01 T00331022  RH  067%=      5-min Rain = 0
KCR1 082241Z 32006KT 03/M03 A3027 RMK A01 T00341025  RH  065%=      5-min Rain = 0
KCR1 082242Z 32006KT 03/M02 A3027 RMK A01 T00341023  RH  066%=      5-min Rain = 0
KCR1 082243Z 33006KT 03/M02 A3027 RMK A01 T00331024  RH  066%=      5-min Rain = 0
KCR1 082244Z 32005KT 03/M02 A3027 RMK A01 T00341021  RH  067%=      5-min Rain = 0
KCR1 082245Z 32006KT 03/M02 A3027 RMK A01 T00341019  RH  068%=      5-min Rain = 0
KCR1 082246Z 33006KT 03/M02 A3027 RMK A01 T00341020  RH  068%=      5-min Rain = 0
KCR1 082247Z 33005KT 03/M02 A3027 RMK A01 T00341023  RH  067%=      5-min Rain = 0
KCR1 082248Z 33005KT 03/M02 A3027 RMK A01 T00331022  RH  067%=      5-min Rain = 0
KCR1 082249Z 33005KT 03/M02 A3027 RMK A01 T00341022  RH  067%=      5-min Rain = 0
KCR1 082250Z 33006KT 03/M02 A3027 RMK A01 T00331022  RH  067%=      5-min Rain = 0
KCR1 082251Z 33005KT 03/M02 A3027 RMK A01 T00341024  RH  066%=      5-min Rain = 0
KCR1 082252Z 32005KT 03/M02 A3028 RMK A01 T00341021  RH  067%=      5-min Rain = 0
KCR1 082253Z 33005KT 03/M02 A3028 RMK A01 T00341021  RH  067%=      5-min Rain = 0
KCR1 082254Z 34005KT 03/M02 A3028 RMK A01 T00341021  RH  067%=      5-min Rain = 0
KCR1 082255Z 34005KT 03/M02 A3028 RMK A01 T00341019  RH  068%=      5-min Rain = 0
KCR1 082256Z 33005KT 03/M02 A3028 RMK A01 T00341019  RH  068%=      5-min Rain = 0
KCR1 082257Z 33004KT 03/M02 A3028 RMK A01 T00341020  RH  068%=      5-min Rain = 0
KCR1 082258Z 33005KT 03/M02 A3028 RMK A01 T00341018  RH  069%=      5-min Rain = 0
KCR1 082259Z 33004KT 03/M02 A3028 RMK A01 T00341019  RH  068%=      5-min Rain = 0
KCR1 082300Z 33005KT 03/M02 A3028 RMK A01 T00341020  RH  068%=      5-min Rain = 0
KCR1 082301Z 33004KT 04/M02 A3028 RMK A01 T00351020  RH  068%=      5-min Rain = 0
KCR1 082302Z 33004KT 04/M02 A3028 RMK A01 T00351018  RH  068%=      5-min Rain = 0
KCR1 082303Z 33005KT 04/M02 A3028 RMK A01 T00351016  RH  069%=      5-min Rain = 0
KCR1 082304Z 33004KT 04/M02 A3028 RMK A01 T00361017  RH  068%=      5-min Rain = 0
KCR1 082305Z 33004KT 04/M02 A3028 RMK A01 T00361017  RH  068%=      5-min Rain = 0
KCR1 082306Z 33004KT 04/M02 A3028 RMK A01 T00361016  RH  068%=      5-min Rain = 0
KCR1 082307Z 33004KT 04/M02 A3028 RMK A01 T00361017  RH  068%=      5-min Rain = 0
KCR1 082308Z 33003KT 04/M02 A3028 RMK A01 T00361016  RH  069%=      5-min Rain = 0
KCR1 082309Z 34003KT 04/M02 A3028 RMK A01 T00361016  RH  069%=      5-min Rain = 0
KCR1 082310Z 33004KT 04/M01 A3028 RMK A01 T00371013  RH  070%=      5-min Rain = 0
KCR1 082311Z 34004KT 04/M02 A3028 RMK A01 T00371016  RH  069%=      5-min Rain = 0
KCR1 082312Z 34003KT 04/M02 A3028 RMK A01 T00371017  RH  068%=      5-min Rain = 0
KCR1 082313Z 34002KT 04/M01 A3028 RMK A01 T00371014  RH  069%=      5-min Rain = 0
KCR1 082314Z 34003KT 04/M01 A3028 RMK A01 T00371013  RH  070%=      5-min Rain = 0
KCR1 082315Z 34002KT 04/M02 A3028 RMK A01 T00371015  RH  069%=      5-min Rain = 0
KCR1 082316Z 35003KT 04/M01 A3028 RMK A01 T00371014  RH  069%=      5-min Rain = 0
KCR1 082317Z 34002KT 04/M01 A3028 RMK A01 T00371013  RH  070%=      5-min Rain = 0
KCR1 082318Z 34003KT 04/M01 A3028 RMK A01 T00371013  RH  070%=      5-min Rain = 0
KCR1 082319Z 35002KT 04/M01 A3028 RMK A01 T00371014  RH  070%=      5-min Rain = 0
KCR1 082320Z 35003KT 04/M01 A3028 RMK A01 T00371012  RH  070%=      5-min Rain = 0
KCR1 082321Z 35003KT 04/M01 A3028 RMK A01 T00371013  RH  070%=      5-min Rain = 0
KCR1 082322Z 34003KT 04/M02 A3028 RMK A01 T00371015  RH  069%=      5-min Rain = 0
KCR1 082323Z 35003KT 04/M02 A3028 RMK A01 T00371015  RH  069%=      5-min Rain = 0
KCR1 082324Z 35003KT 04/M01 A3028 RMK A01 T00371014  RH  070%=      5-min Rain = 0
KCR1 082325Z 35003KT 04/M01 A3028 RMK A01 T00361012  RH  071%=      5-min Rain = 0
KCR1 082326Z 01002KT 04/M01 A3028 RMK A01 T00361012  RH  071%=      5-min Rain = 0
KCR1 082327Z 01002KT 04/M01 A3028 RMK A01 T00361009  RH  072%=      5-min Rain = 0
KCR1 082328Z 02002KT 04/M01 A3028 RMK A01 T00361008  RH  073%=      5-min Rain = 0
KCR1 082329Z 02003KT 04/M01 A3028 RMK A01 T00361007  RH  073%=      5-min Rain = 0
KCR1 082330Z 02002KT 04/M01 A3028 RMK A01 T00351008  RH  073%=      5-min Rain = 0
KCR1 082331Z 02002KT 04/M01 A3028 RMK A01 T00351007  RH  074%=      5-min Rain = 0
KCR1 082332Z 01002KT 04/M01 A3028 RMK A01 T00351007  RH  074%=      5-min Rain = 0
KCR1 082333Z 01003KT 04/M01 A3028 RMK A01 T00351008  RH  073%=      5-min Rain = 0
KCR1 082334Z 01003KT 03/M01 A3028 RMK A01 T00341008  RH  073%=      5-min Rain = 0
KCR1 082335Z 01003KT 03/M01 A3028 RMK A01 T00341007  RH  074%=      5-min Rain = 0
KCR1 082336Z 01003KT 03/M01 A3028 RMK A01 T00341009  RH  073%=      5-min Rain = 0
KCR1 082337Z 01003KT 03/M01 A3028 RMK A01 T00341008  RH  074%=      5-min Rain = 0
KCR1 082338Z 01003KT 03/M01 A3028 RMK A01 T00341009  RH  073%=      5-min Rain = 0
KCR1 082339Z 01003KT 03/M01 A3028 RMK A01 T00341009  RH  073%=      5-min Rain = 0
KCR1 082340Z 01003KT 03/M01 A3028 RMK A01 T00341009  RH  074%=      5-min Rain = 0
KCR1 082341Z 01003KT 03/M01 A3028 RMK A01 T00341008  RH  074%=      5-min Rain = 0
KCR1 082342Z 01003KT 03/M01 A3028 RMK A01 T00331008  RH  074%=      5-min Rain = 0
KCR1 082343Z 01003KT 03/M01 A3028 RMK A01 T00341008  RH  074%=      5-min Rain = 0
KCR1 082344Z 02003KT 03/M01 A3028 RMK A01 T00331008  RH  075%=      5-min Rain = 0
KCR1 082345Z 02003KT 03/M01 A3028 RMK A01 T00331008  RH  074%=      5-min Rain = 0
KCR1 082346Z 02003KT 03/M01 A3028 RMK A01 T00331009  RH  074%=      5-min Rain = 0
KCR1 082347Z 02002KT 03/M01 A3028 RMK A01 T00331009  RH  074%=      5-min Rain = 0
KCR1 082348Z 02002KT 03/M01 A3028 RMK A01 T00331008  RH  074%=      5-min Rain = 0
KCR1 082349Z 02002KT 03/M01 A3028 RMK A01 T00331006  RH  075%=      5-min Rain = 0
KCR1 082350Z 03002KT 03/M01 A3028 RMK A01 T00331005  RH  076%=      5-min Rain = 0
KCR1 082351Z 03002KT 03/M01 A3028 RMK A01 T00331005  RH  076%=      5-min Rain = 0
KCR1 082352Z 03002KT 03/M01 A3028 RMK A01 T00331005  RH  076%=      5-min Rain = 0
KCR1 082353Z 03002KT 03/M01 A3028 RMK A01 T00331005  RH  076%=      5-min Rain = 0
KCR1 082354Z 03002KT 03/M01 A3028 RMK A01 T00331006  RH  076%=      5-min Rain = 0
KCR1 082355Z 03002KT 03/M01 A3028 RMK A01 T00331009  RH  074%=      5-min Rain = 0
KCR1 082356Z 03002KT 03/M01 A3028 RMK A01 T00331010  RH  073%=      5-min Rain = 0
KCR1 082357Z 03002KT 03/M01 A3028 RMK A01 T00331008  RH  075%=      5-min Rain = 0
KCR1 082358Z 03002KT 03/M01 A3028 RMK A01 T00331008  RH  075%=      5-min Rain = 0
KCR1 082359Z 03002KT 03/M01 A3028 RMK A01 T00331008  RH  075%=      5-min Rain = 0
KCR1 090000Z 03002KT 03/M01 A3028 RMK A01 T00331007  RH  075%=      5-min Rain = 0
KCR1 090001Z 03002KT 03/M01 A3028 RMK A01 T00331007  RH  075%=      5-min Rain = 0
KCR1 090002Z 03002KT 03/M01 A3029 RMK A01 T00321009  RH  075%=      5-min Rain = 0
KCR1 090003Z 03002KT 03/M01 A3029 RMK A01 T00321010  RH  074%=      5-min Rain = 0
KCR1 090004Z 03002KT 03/M01 A3029 RMK A01 T00321011  RH  073%=      5-min Rain = 0
KCR1 090005Z 03002KT 03/M01 A3029 RMK A01 T00321011  RH  073%=      5-min Rain = 0
KCR1 090006Z 03002KT 03/M01 A3029 RMK A01 T00321012  RH  073%=      5-min Rain = 0
KCR1 090007Z 03002KT 03/M01 A3029 RMK A01 T00321013  RH  072%=      5-min Rain = 0
KCR1 090008Z 03001KT 03/M01 A3029 RMK A01 T00321013  RH  072%=      5-min Rain = 0
KCR1 090009Z 03002KT 03/M01 A3029 RMK A01 T00321014  RH  072%=      5-min Rain = 0
KCR1 090010Z 02002KT 03/M01 A3029 RMK A01 T00321014  RH  072%=      5-min Rain = 0
KCR1 090011Z 03001KT 03/M01 A3029 RMK A01 T00321012  RH  073%=      5-min Rain = 0
KCR1 090012Z 03002KT 03/M01 A3029 RMK A01 T00321012  RH  073%=      5-min Rain = 0
KCR1 090013Z 04002KT 03/M01 A3029 RMK A01 T00321012  RH  073%=      5-min Rain = 0
KCR1 090014Z 04002KT 03/M01 A3029 RMK A01 T00321012  RH  073%=      5-min Rain = 0
KCR1 090015Z 05002KT 03/M01 A3029 RMK A01 T00321012  RH  072%=      5-min Rain = 0
KCR1 090016Z 05002KT 03/M01 A3029 RMK A01 T00321011  RH  073%=      5-min Rain = 0
KCR1 090017Z 06003KT 03/M01 A3029 RMK A01 T00321011  RH  074%=      5-min Rain = 0
KCR1 090018Z 05003KT 03/M01 A3029 RMK A01 T00321009  RH  074%=      5-min Rain = 0
KCR1 090019Z 05003KT 03/M01 A3029 RMK A01 T00321009  RH  075%=      5-min Rain = 0
KCR1 090020Z 05003KT 03/M01 A3029 RMK A01 T00311006  RH  076%=      5-min Rain = 0
KCR1 090021Z 05003KT 03/M01 A3029 RMK A01 T00311005  RH  078%=      5-min Rain = 0
KCR1 090022Z 05003KT 03/M01 A3029 RMK A01 T00301005  RH  078%=      5-min Rain = 0
KCR1 090023Z 05003KT 03/M01 A3029 RMK A01 T00301005  RH  078%=      5-min Rain = 0
KCR1 090024Z 05004KT 03/M01 A3029 RMK A01 T00301005  RH  078%=      5-min Rain = 0
KCR1 090025Z 04003KT 03/M01 A3029 RMK A01 T00291009  RH  076%=      5-min Rain = 0
KCR1 090026Z 04004KT 03/M01 A3029 RMK A01 T00291010  RH  075%=      5-min Rain = 0
KCR1 090027Z 04004KT 03/M01 A3029 RMK A01 T00291011  RH  075%=      5-min Rain = 0
KCR1 090028Z 04004KT 03/M01 A3029 RMK A01 T00281012  RH  075%=      5-min Rain = 0
KCR1 090029Z 05003KT 03/M01 A3029 RMK A01 T00281014  RH  074%=      5-min Rain = 0
KCR1 090030Z 05004KT 03/M01 A3029 RMK A01 T00281012  RH  075%=      5-min Rain = 0
KCR1 090031Z 04004KT 03/M02 A3029 RMK A01 T00271015  RH  074%=      5-min Rain = 0
KCR1 090032Z 04003KT 03/M02 A303 RMK A01 T00271018  RH  072%=      5-min Rain = 0
KCR1 090033Z 03003KT 03/M02 A303 RMK A01 T00271018  RH  072%=      5-min Rain = 0
KCR1 090034Z 04003KT 03/M02 A303 RMK A01 T00271021  RH  071%=      5-min Rain = 0
KCR1 090035Z 04003KT 03/M01 A303 RMK A01 T00271014  RH  074%=      5-min Rain = 0
KCR1 090036Z 04003KT 03/M02 A303 RMK A01 T00261015  RH  074%=      5-min Rain = 0
KCR1 090037Z 04003KT 03/M02 A303 RMK A01 T00261019  RH  072%=      5-min Rain = 0
KCR1 090038Z 04003KT 03/M02 A303 RMK A01 T00251019  RH  073%=      5-min Rain = 0
KCR1 090039Z 04003KT 03/M02 A303 RMK A01 T00251019  RH  073%=      5-min Rain = 0
KCR1 090040Z 03003KT 03/M02 A303 RMK A01 T00251019  RH  073%=      5-min Rain = 0
KCR1 090041Z 03003KT 03/M02 A303 RMK A01 T00251019  RH  073%=      5-min Rain = 0
KCR1 090042Z 02002KT 02/M02 A303 RMK A01 T00241020  RH  073%=      5-min Rain = 0
KCR1 090043Z 01002KT 02/M02 A303 RMK A01 T00241021  RH  072%=      5-min Rain = 0
KCR1 090044Z 01002KT 02/M02 A303 RMK A01 T00241022  RH  072%=      5-min Rain = 0
KCR1 090045Z 01002KT 02/M02 A303 RMK A01 T00231024  RH  071%=      5-min Rain = 0
KCR1 090046Z 01002KT 02/M02 A303 RMK A01 T00241023  RH  071%=      5-min Rain = 0
KCR1 090047Z 01002KT 02/M02 A303 RMK A01 T00241021  RH  072%=      5-min Rain = 0
KCR1 090048Z 01003KT 02/M02 A303 RMK A01 T00231020  RH  073%=      5-min Rain = 0
KCR1 090049Z 00003KT 02/M02 A303 RMK A01 T00221021  RH  073%=      5-min Rain = 0
KCR1 090050Z 35002KT 02/M02 A303 RMK A01 T00231024  RH  071%=      5-min Rain = 0
KCR1 090051Z 35002KT 02/M03 A303 RMK A01 T00231025  RH  071%=      5-min Rain = 0
KCR1 090052Z 36002KT 02/M03 A303 RMK A01 T00231025  RH  070%=      5-min Rain = 0
KCR1 090053Z 36002KT 02/M03 A303 RMK A01 T00231028  RH  069%=      5-min Rain = 0
KCR1 090054Z 36003KT 02/M03 A303 RMK A01 T00221026  RH  070%=      5-min Rain = 0
KCR1 090055Z 36003KT 02/M02 A303 RMK A01 T00231024  RH  071%=      5-min Rain = 0
KCR1 090056Z 00002KT 02/M02 A303 RMK A01 T00221024  RH  071%=      5-min Rain = 0
KCR1 090057Z 01002KT 02/M02 A303 RMK A01 T00221024  RH  071%=      5-min Rain = 0
KCR1 090058Z 01002KT 02/M02 A303 RMK A01 T00231024  RH  071%=      5-min Rain = 0
KCR1 090059Z 01002KT 02/M02 A303 RMK A01 T00221024  RH  071%=      5-min Rain = 0
KCR1 090100Z 01003KT 02/M02 A303 RMK A01 T00221024  RH  072%=      5-min Rain = 0
KCR1 090101Z 01003KT 02/M02 A303 RMK A01 T00221023  RH  072%=      5-min Rain = 0
KCR1 090102Z 01003KT 02/M02 A303 RMK A01 T00211023  RH  073%=      5-min Rain = 0
KCR1 090103Z 01003KT 02/M02 A303 RMK A01 T00211024  RH  072%=      5-min Rain = 0
KCR1 090104Z 03003KT 02/M02 A303 RMK A01 T00201023  RH  073%=      5-min Rain = 0
KCR1 090105Z 03003KT 02/M02 A303 RMK A01 T00201022  RH  074%=      5-min Rain = 0
KCR1 090106Z 03003KT 02/M02 A303 RMK A01 T00191022  RH  074%=      5-min Rain = 0
KCR1 090107Z 02003KT 02/M02 A303 RMK A01 T00191022  RH  074%=      5-min Rain = 0
KCR1 090108Z 02002KT 02/M02 A303 RMK A01 T00181021  RH  075%=      5-min Rain = 0
KCR1 090109Z 02002KT 02/M02 A303 RMK A01 T00171021  RH  075%=      5-min Rain = 0
KCR1 090110Z 02002KT 02/M02 A303 RMK A01 T00171021  RH  076%=      5-min Rain = 0
KCR1 090111Z 02002KT 02/M02 A303 RMK A01 T00161020  RH  077%=      5-min Rain = 0
KCR1 090112Z 01002KT 02/M02 A303 RMK A01 T00151018  RH  078%=      5-min Rain = 0
KCR1 090113Z 00002KT 01/M02 A303 RMK A01 T00141018  RH  079%=      5-min Rain = 0
KCR1 090114Z 00001KT 01/M02 A303 RMK A01 T00141020  RH  078%=      5-min Rain = 0
KCR1 090115Z 35001KT 01/M02 A303 RMK A01 T00141021  RH  077%=      5-min Rain = 0
KCR1 090116Z 33001KT 01/M02 A303 RMK A01 T00131022  RH  077%=      5-min Rain = 0
KCR1 090117Z 32001KT 01/M03 A303 RMK A01 T00131025  RH  076%=      5-min Rain = 0
KCR1 090118Z 31002KT 01/M03 A303 RMK A01 T00141027  RH  074%=      5-min Rain = 0
KCR1 090119Z 31002KT 02/M03 A303 RMK A01 T00151027  RH  074%=      5-min Rain = 0
KCR1 090120Z 31001KT 02/M03 A303 RMK A01 T00161027  RH  073%=      5-min Rain = 0
KCR1 090121Z 31002KT 02/M03 A303 RMK A01 T00171026  RH  073%=      5-min Rain = 0
KCR1 090122Z 32002KT 02/M03 A303 RMK A01 T00181026  RH  073%=      5-min Rain = 0
KCR1 090123Z 33002KT 02/M03 A303 RMK A01 T00181025  RH  073%=      5-min Rain = 0
KCR1 090124Z 33002KT 02/M03 A303 RMK A01 T00181025  RH  073%=      5-min Rain = 0
KCR1 090125Z 33002KT 02/M03 A303 RMK A01 T00181026  RH  072%=      5-min Rain = 0
KCR1 090126Z 32002KT 02/M03 A303 RMK A01 T00181026  RH  073%=      5-min Rain = 0
KCR1 090127Z 32002KT 02/M03 A303 RMK A01 T00191025  RH  073%=      5-min Rain = 0
KCR1 090128Z 33002KT 02/M03 A303 RMK A01 T00181025  RH  073%=      5-min Rain = 0
KCR1 090129Z 32002KT 02/M03 A303 RMK A01 T00181026  RH  073%=      5-min Rain = 0
KCR1 090130Z 32003KT 02/M03 A303 RMK A01 T00171027  RH  073%=      5-min Rain = 0
KCR1 090131Z 32003KT 02/M03 A303 RMK A01 T00171025  RH  074%=      5-min Rain = 0
KCR1 090132Z 32003KT 02/M03 A303 RMK A01 T00171026  RH  073%=      5-min Rain = 0
KCR1 090133Z 32003KT 02/M03 A303 RMK A01 T00161027  RH  073%=      5-min Rain = 0
KCR1 090134Z 33003KT 02/M03 A303 RMK A01 T00161027  RH  073%=      5-min Rain = 0
KCR1 090135Z 33003KT 02/M03 A303 RMK A01 T00161028  RH  072%=      5-min Rain = 0
KCR1 090136Z 33003KT 02/M03 A303 RMK A01 T00161029  RH  072%=      5-min Rain = 0
KCR1 090137Z 32003KT 02/M03 A303 RMK A01 T00161029  RH  072%=      5-min Rain = 0
KCR1 090138Z 32003KT 02/M03 A303 RMK A01 T00161028  RH  072%=      5-min Rain = 0
KCR1 090139Z 33003KT 02/M03 A303 RMK A01 T00161028  RH  073%=      5-min Rain = 0
KCR1 090140Z 32003KT 02/M03 A303 RMK A01 T00161028  RH  073%=      5-min Rain = 0
KCR1 090141Z 33003KT 02/M03 A303 RMK A01 T00161027  RH  073%=      5-min Rain = 0
KCR1 090142Z 32003KT 02/M03 A303 RMK A01 T00171028  RH  072%=      5-min Rain = 0
KCR1 090143Z 31003KT 02/M03 A303 RMK A01 T00171027  RH  073%=      5-min Rain = 0
KCR1 090144Z 32003KT 02/M02 A3031 RMK A01 T00171024  RH  074%=      5-min Rain = 0
KCR1 090145Z 32003KT 02/M02 A3031 RMK A01 T00171023  RH  075%=      5-min Rain = 0
KCR1 090146Z 32003KT 02/M02 A3031 RMK A01 T00161022  RH  075%=      5-min Rain = 0
KCR1 090147Z 32003KT 02/M02 A3031 RMK A01 T00161022  RH  076%=      5-min Rain = 0
KCR1 090148Z 32003KT 02/M02 A3031 RMK A01 T00161021  RH  077%=      5-min Rain = 0
KCR1 090149Z 32003KT 02/M02 A3031 RMK A01 T00151021  RH  077%=      5-min Rain = 0
KCR1 090150Z 32003KT 01/M02 A3031 RMK A01 T00141020  RH  078%=      5-min Rain = 0
KCR1 090151Z 31003KT 01/M02 A3031 RMK A01 T00141020  RH  078%=      5-min Rain = 0
KCR1 090152Z 31003KT 01/M02 A3031 RMK A01 T00131019  RH  079%=      5-min Rain = 0
KCR1 090153Z 31003KT 01/M02 A3031 RMK A01 T00131018  RH  080%=      5-min Rain = 0
KCR1 090154Z 31003KT 01/M02 A3031 RMK A01 T00131018  RH  080%=      5-min Rain = 0
KCR1 090155Z 31003KT 01/M02 A3031 RMK A01 T00131018  RH  080%=      5-min Rain = 0
KCR1 090156Z 31003KT 01/M02 A3031 RMK A01 T00131017  RH  081%=      5-min Rain = 0
KCR1 090157Z 31003KT 01/M02 A3031 RMK A01 T00121018  RH  081%=      5-min Rain = 0
KCR1 090158Z 31003KT 01/M02 A3031 RMK A01 T00121017  RH  081%=      5-min Rain = 0
KCR1 090159Z 31003KT 01/M02 A3031 RMK A01 T00121018  RH  081%=      5-min Rain = 0
KCR1 090200Z 31003KT 01/M02 A3031 RMK A01 T00121018  RH  080%=      5-min Rain = 0
KCR1 090201Z 30003KT 01/M02 A3031 RMK A01 T00121019  RH  080%=      5-min Rain = 0
KCR1 090202Z 30003KT 01/M02 A3031 RMK A01 T00121018  RH  080%=      5-min Rain = 0
KCR1 090203Z 31004KT 01/M02 A3031 RMK A01 T00121018  RH  080%=      5-min Rain = 0
KCR1 090204Z 31004KT 01/M02 A3031 RMK A01 T00121018  RH  080%=      5-min Rain = 0
KCR1 090205Z 31004KT 01/M02 A3031 RMK A01 T00111019  RH  080%=      5-min Rain = 0
KCR1 090206Z 31004KT 01/M02 A3031 RMK A01 T00101020  RH  080%=      5-min Rain = 0
KCR1 090207Z 30004KT 01/M02 A3031 RMK A01 T00101020  RH  080%=      5-min Rain = 0
KCR1 090208Z 30004KT 01/M02 A3031 RMK A01 T00091021  RH  080%=      5-min Rain = 0
KCR1 090209Z 30004KT 01/M02 A3031 RMK A01 T00091021  RH  081%=      5-min Rain = 0
KCR1 090210Z 31003KT 01/M02 A3031 RMK A01 T00081021  RH  081%=      5-min Rain = 0
KCR1 090211Z 30004KT 01/M02 A3031 RMK A01 T00071021  RH  082%=      5-min Rain = 0
KCR1 090212Z 30004KT 01/M02 A3031 RMK A01 T00071020  RH  082%=      5-min Rain = 0
KCR1 090213Z 30004KT 01/M02 A3031 RMK A01 T00071020  RH  082%=      5-min Rain = 0
KCR1 090214Z 30004KT 01/M02 A3031 RMK A01 T00071020  RH  082%=      5-min Rain = 0
KCR1 090215Z 30004KT 01/M02 A3031 RMK A01 T00071021  RH  082%=      5-min Rain = 0
KCR1 090216Z 30005KT 01/M02 A3031 RMK A01 T00061022  RH  082%=      5-min Rain = 0
KCR1 090217Z 30005KT 01/M02 A3031 RMK A01 T00061022  RH  082%=      5-min Rain = 0
KCR1 090218Z 30005KT 01/M02 A3031 RMK A01 T00051022  RH  082%=      5-min Rain = 0
KCR1 090219Z 30005KT 01/M02 A3032 RMK A01 T00051022  RH  082%=      5-min Rain = 0
KCR1 090220Z 30005KT 01/M02 A3032 RMK A01 T00051022  RH  083%=      5-min Rain = 0
KCR1 090221Z 30005KT 01/M02 A3031 RMK A01 T00051021  RH  083%=      5-min Rain = 0
KCR1 090222Z 30005KT 01/M02 A3031 RMK A01 T00051021  RH  083%=      5-min Rain = 0
KCR1 090223Z 31005KT 01/M02 A3031 RMK A01 T00051021  RH  083%=      5-min Rain = 0
KCR1 090224Z 31005KT 01/M02 A3031 RMK A01 T00051021  RH  083%=      5-min Rain = 0
KCR1 090225Z 31005KT 01/M02 A3031 RMK A01 T00051021  RH  083%=      5-min Rain = 0
KCR1 090226Z 31005KT 01/M02 A3031 RMK A01 T00051021  RH  083%=      5-min Rain = 0
KCR1 090227Z 31005KT 00/M02 A3031 RMK A01 T00041021  RH  083%=      5-min Rain = 0
KCR1 090228Z 31005KT 00/M02 A3031 RMK A01 T00041021  RH  083%=      5-min Rain = 0
KCR1 090229Z 31005KT 00/M02 A3031 RMK A01 T00031022  RH  083%=      5-min Rain = 0
KCR1 090230Z 31005KT 00/M02 A3031 RMK A01 T00031022  RH  083%=      5-min Rain = 0
KCR1 090231Z 31005KT 00/M02 A3031 RMK A01 T00031022  RH  084%=      5-min Rain = 0
KCR1 090232Z 31005KT 00/M02 A3031 RMK A01 T00031022  RH  084%=      5-min Rain = 0
KCR1 090233Z 31005KT 00/M02 A3031 RMK A01 T00031022  RH  083%=      5-min Rain = 0
KCR1 090234Z 31006KT 00/M02 A3031 RMK A01 T00031022  RH  083%=      5-min Rain = 0
KCR1 090235Z 31006KT 00/M02 A3031 RMK A01 T00031022  RH  083%=      5-min Rain = 0
KCR1 090236Z 30005KT 00/M02 A3031 RMK A01 T00031022  RH  083%=      5-min Rain = 0
KCR1 090237Z 30005KT 00/M02 A3031 RMK A01 T00041022  RH  083%=      5-min Rain = 0
KCR1 090238Z 31005KT 00/M02 A3031 RMK A01 T00041022  RH  083%=      5-min Rain = 0
KCR1 090239Z 30005KT 00/M02 A3031 RMK A01 T00041022  RH  083%=      5-min Rain = 0
KCR1 090240Z 31005KT 00/M02 A3031 RMK A01 T00041021  RH  083%=      5-min Rain = 0
KCR1 090241Z 30005KT 00/M02 A3031 RMK A01 T00041021  RH  083%=      5-min Rain = 0
KCR1 090242Z 31006KT 00/M02 A3031 RMK A01 T00031021  RH  084%=      5-min Rain = 0
KCR1 090243Z 31005KT 00/M02 A3031 RMK A01 T00031020  RH  084%=      5-min Rain = 0
KCR1 090244Z 30006KT 00/M02 A3031 RMK A01 T00031020  RH  084%=      5-min Rain = 0
KCR1 090245Z 30006KT 00/M02 A3031 RMK A01 T00031020  RH  084%=      5-min Rain = 0
KCR1 090246Z 30006KT 00/M02 A3031 RMK A01 T00031020  RH  084%=      5-min Rain = 0
KCR1 090247Z 30006KT 00/M02 A3031 RMK A01 T00031020  RH  085%=      5-min Rain = 0
KCR1 090248Z 30006KT 00/M02 A3031 RMK A01 T00031020  RH  085%=      5-min Rain = 0
KCR1 090249Z 30006KT 00/M02 A3031 RMK A01 T00031020  RH  085%=      5-min Rain = 0
KCR1 090250Z 30006KT 00/M02 A3031 RMK A01 T00031019  RH  085%=      5-min Rain = 0
KCR1 090251Z 30006KT 00/M02 A3031 RMK A01 T00031019  RH  085%=      5-min Rain = 0
KCR1 090252Z 30006KT 00/M02 A3031 RMK A01 T00031019  RH  085%=      5-min Rain = 0
KCR1 090253Z 30006KT 00/M02 A3031 RMK A01 T00031019  RH  085%=      5-min Rain = 0
KCR1 090254Z 30006KT 00/M02 A3031 RMK A01 T00021019  RH  085%=      5-min Rain = 0
KCR1 090255Z 31006KT 00/M02 A3031 RMK A01 T00021019  RH  085%=      5-min Rain = 0
KCR1 090256Z 31005KT 00/M02 A3031 RMK A01 T00021020  RH  085%=      5-min Rain = 0
KCR1 090257Z 31006KT 00/M02 A3031 RMK A01 T00021020  RH  085%=      5-min Rain = 0
KCR1 090258Z 31006KT 00/M02 A3031 RMK A01 T00021020  RH  085%=      5-min Rain = 0
KCR1 090259Z 31006KT 00/M02 A3031 RMK A01 T00021020  RH  085%=      5-min Rain = 0
KCR1 090300Z 31006KT 00/M02 A3031 RMK A01 T00021021  RH  085%=      5-min Rain = 0
KCR1 090301Z 31005KT 00/M02 A3031 RMK A01 T00021021  RH  085%=      5-min Rain = 0
KCR1 090302Z 31005KT 00/M02 A3031 RMK A01 T00021021  RH  085%=      5-min Rain = 0
KCR1 090303Z 31006KT 00/M02 A3031 RMK A01 T00021021  RH  085%=      5-min Rain = 0
KCR1 090304Z 31006KT 00/M02 A3031 RMK A01 T00031021  RH  085%=      5-min Rain = 0
KCR1 090305Z 31006KT 00/M02 A3031 RMK A01 T00021021  RH  084%=      5-min Rain = 0
KCR1 090306Z 31005KT 00/M02 A3031 RMK A01 T00021021  RH  084%=      5-min Rain = 0
KCR1 090307Z 31005KT 00/M02 A3031 RMK A01 T00021022  RH  084%=      5-min Rain = 0
KCR1 090308Z 31005KT 00/M02 A3031 RMK A01 T00021021  RH  084%=      5-min Rain = 0
KCR1 090309Z 31006KT 00/M02 A3031 RMK A01 T00021021  RH  084%=      5-min Rain = 0
KCR1 090310Z 31006KT 00/M02 A3031 RMK A01 T00021022  RH  084%=      5-min Rain = 0
KCR1 090311Z 32005KT 00/M02 A3031 RMK A01 T00021022  RH  084%=      5-min Rain = 0
KCR1 090312Z 32005KT 00/M02 A3031 RMK A01 T00011022  RH  084%=      5-min Rain = 0
KCR1 090313Z 32005KT 00/M02 A3031 RMK A01 T00021022  RH  084%=      5-min Rain = 0
KCR1 090314Z 32005KT 00/M02 A3031 RMK A01 T00021023  RH  084%=      5-min Rain = 0
KCR1 090315Z 32005KT 00/M02 A3031 RMK A01 T00021023  RH  083%=      5-min Rain = 0
KCR1 090316Z 31005KT 00/M02 A3031 RMK A01 T00021024  RH  083%=      5-min Rain = 0
KCR1 090317Z 32005KT 00/M02 A3031 RMK A01 T00021024  RH  083%=      5-min Rain = 0
KCR1 090318Z 31005KT 00/M03 A3031 RMK A01 T00021025  RH  082%=      5-min Rain = 0
KCR1 090319Z 31005KT 00/M03 A3031 RMK A01 T00021025  RH  082%=      5-min Rain = 0
KCR1 090320Z 31005KT 00/M03 A3031 RMK A01 T00021025  RH  082%=      5-min Rain = 0
KCR1 090321Z 31005KT 00/M03 A3031 RMK A01 T00031025  RH  082%=      5-min Rain = 0
KCR1 090322Z 31006KT 00/M03 A3031 RMK A01 T00021025  RH  082%=      5-min Rain = 0
KCR1 090323Z 31005KT 00/M03 A3031 RMK A01 T00021026  RH  082%=      5-min Rain = 0
KCR1 090324Z 32005KT 00/M03 A3031 RMK A01 T00021026  RH  082%=      5-min Rain = 0
KCR1 090325Z 31005KT 00/M03 A3031 RMK A01 T00021026  RH  082%=      5-min Rain = 0
KCR1 090326Z 32005KT 00/M03 A3031 RMK A01 T00011026  RH  082%=      5-min Rain = 0
KCR1 090327Z 32006KT 00/M03 A3031 RMK A01 T00011026  RH  082%=      5-min Rain = 0
KCR1 090328Z 32005KT 00/M03 A3031 RMK A01 T00021026  RH  082%=      5-min Rain = 0
KCR1 090329Z 32005KT 00/M03 A3031 RMK A01 T00021026  RH  082%=      5-min Rain = 0
KCR1 090330Z 31005KT 00/M03 A3031 RMK A01 T00021026  RH  081%=      5-min Rain = 0
KCR1 090331Z 31005KT 00/M03 A3031 RMK A01 T00021027  RH  081%=      5-min Rain = 0
KCR1 090332Z 31006KT 00/M03 A3031 RMK A01 T00021027  RH  081%=      5-min Rain = 0
KCR1 090333Z 31006KT 00/M03 A3031 RMK A01 T00021027  RH  081%=      5-min Rain = 0
KCR1 090334Z 31006KT 00/M03 A3031 RMK A01 T00021027  RH  081%=      5-min Rain = 0
KCR1 090335Z 31006KT 00/M03 A3031 RMK A01 T00021027  RH  081%=      5-min Rain = 0
KCR1 090336Z 31006KT 00/M03 A3031 RMK A01 T00021027  RH  081%=      5-min Rain = 0
KCR1 090337Z 31006KT 00/M03 A3031 RMK A01 T00021027  RH  081%=      5-min Rain = 0
KCR1 090338Z 31006KT 00/M03 A3031 RMK A01 T00021027  RH  081%=      5-min Rain = 0
KCR1 090339Z 31006KT 00/M03 A3031 RMK A01 T00021027  RH  081%=      5-min Rain = 0
KCR1 090340Z 32006KT 00/M03 A3031 RMK A01 T00021027  RH  081%=      5-min Rain = 0
KCR1 090341Z 32006KT 00/M03 A3031 RMK A01 T00021027  RH  081%=      5-min Rain = 0
KCR1 090342Z 32006KT 00/M03 A3031 RMK A01 T00031027  RH  081%=      5-min Rain = 0
KCR1 090343Z 32006KT 00/M03 A3031 RMK A01 T00031027  RH  080%=      5-min Rain = 0
KCR1 090344Z 32006KT 00/M03 A3031 RMK A01 T00031028  RH  080%=      5-min Rain = 0
KCR1 090345Z 32006KT 00/M03 A3031 RMK A01 T00041028  RH  079%=      5-min Rain = 0
KCR1 090346Z 32006KT 00/M03 A3031 RMK A01 T00041028  RH  079%=      5-min Rain = 0
KCR1 090347Z 32006KT 00/M03 A3031 RMK A01 T00041028  RH  079%=      5-min Rain = 0
KCR1 090348Z 32006KT 00/M03 A3031 RMK A01 T00041029  RH  079%=      5-min Rain = 0
KCR1 090349Z 32006KT 00/M03 A3031 RMK A01 T00041029  RH  079%=      5-min Rain = 0
KCR1 090350Z 32006KT 00/M03 A3031 RMK A01 T00041030  RH  078%=      5-min Rain = 0
KCR1 090351Z 32006KT 00/M03 A3031 RMK A01 T00041030  RH  078%=      5-min Rain = 0
KCR1 090352Z 32006KT 01/M03 A3031 RMK A01 T00051030  RH  078%=      5-min Rain = 0
KCR1 090353Z 32006KT 01/M03 A3031 RMK A01 T00051031  RH  077%=      5-min Rain = 0
KCR1 090354Z 32006KT 01/M03 A3031 RMK A01 T00051032  RH  076%=      5-min Rain = 0
KCR1 090355Z 32006KT 01/M03 A3031 RMK A01 T00061032  RH  076%=      5-min Rain = 0
KCR1 090356Z 32006KT 01/M03 A3031 RMK A01 T00061032  RH  076%=      5-min Rain = 0
KCR1 090357Z 32006KT 01/M03 A3031 RMK A01 T00061032  RH  076%=      5-min Rain = 0
KCR1 090358Z 32006KT 01/M03 A3031 RMK A01 T00061032  RH  076%=      5-min Rain = 0
KCR1 090359Z 32006KT 01/M03 A3031 RMK A01 T00071032  RH  075%=      5-min Rain = 0
KCR1 090400Z 32006KT 01/M03 A3031 RMK A01 T00061032  RH  076%=      5-min Rain = 0
KCR1 090401Z 32006KT 01/M03 A3031 RMK A01 T00061031  RH  076%=      5-min Rain = 0
KCR1 090402Z 32006KT 01/M03 A3031 RMK A01 T00051031  RH  077%=      5-min Rain = 0
KCR1 090403Z 32006KT 01/M03 A3031 RMK A01 T00051031  RH  077%=      5-min Rain = 0
KCR1 090404Z 33006KT 00/M03 A3031 RMK A01 T00041032  RH  077%=      5-min Rain = 0
KCR1 090405Z 32006KT 00/M03 A3031 RMK A01 T00041033  RH  076%=      5-min Rain = 0
KCR1 090406Z 33006KT 01/M03 A3031 RMK A01 T00051033  RH  076%=      5-min Rain = 0
KCR1 090407Z 33006KT 01/M03 A3031 RMK A01 T00061034  RH  075%=      5-min Rain = 0
KCR1 090408Z 33006KT 01/M03 A3031 RMK A01 T00061033  RH  075%=      5-min Rain = 0
KCR1 090409Z 33006KT 01/M03 A3031 RMK A01 T00061034  RH  075%=      5-min Rain = 0
KCR1 090410Z 33006KT 01/M03 A3031 RMK A01 T00061033  RH  075%=      5-min Rain = 0
KCR1 090411Z 33007KT 01/M03 A3031 RMK A01 T00061034  RH  075%=      5-min Rain = 0
KCR1 090412Z 33007KT 01/M04 A3031 RMK A01 T00061035  RH  074%=      5-min Rain = 0
KCR1 090413Z 33007KT 01/M03 A3031 RMK A01 T00071034  RH  074%=      5-min Rain = 0
KCR1 090414Z 34007KT 01/M03 A3031 RMK A01 T00071034  RH  074%=      5-min Rain = 0
KCR1 090415Z 34008KT 01/M04 A3031 RMK A01 T00071035  RH  073%=      5-min Rain = 0
KCR1 090416Z 34008KT 01/M04 A3031 RMK A01 T00071035  RH  073%=      5-min Rain = 0
KCR1 090417Z 33007KT 01/M04 A3032 RMK A01 T00071035  RH  073%=      5-min Rain = 0
KCR1 090418Z 33007KT 01/M04 A3032 RMK A01 T00071035  RH  073%=      5-min Rain = 0
KCR1 090419Z 33007KT 01/M04 A3032 RMK A01 T00071036  RH  073%=      5-min Rain = 0
KCR1 090420Z 33007KT 01/M04 A3032 RMK A01 T00071036  RH  073%=      5-min Rain = 0
KCR1 090421Z 33007KT 01/M04 A3032 RMK A01 T00081037  RH  072%=      5-min Rain = 0
KCR1 090422Z 33007KT 01/M04 A3032 RMK A01 T00081037  RH  072%=      5-min Rain = 0
KCR1 090423Z 33006KT 01/M04 A3032 RMK A01 T00071037  RH  072%=      5-min Rain = 0
KCR1 090424Z 32007KT 01/M04 A3032 RMK A01 T00071036  RH  073%=      5-min Rain = 0
KCR1 090425Z 33007KT 01/M04 A3032 RMK A01 T00071036  RH  073%=      5-min Rain = 0
KCR1 090426Z 33007KT 01/M04 A3032 RMK A01 T00071035  RH  074%=      5-min Rain = 0
KCR1 090427Z 33007KT 01/M04 A3032 RMK A01 T00061035  RH  074%=      5-min Rain = 0
KCR1 090428Z 33007KT 01/M04 A3032 RMK A01 T00061036  RH  074%=      5-min Rain = 0
KCR1 090429Z 33007KT 01/M04 A3032 RMK A01 T00061037  RH  073%=      5-min Rain = 0
KCR1 090430Z 33007KT 01/M04 A3032 RMK A01 T00071036  RH  073%=      5-min Rain = 0
KCR1 090431Z 33007KT 01/M04 A3032 RMK A01 T00061035  RH  074%=      5-min Rain = 0
KCR1 090432Z 33007KT 01/M04 A3032 RMK A01 T00061035  RH  074%=      5-min Rain = 0
KCR1 090433Z 33007KT 01/M04 A3032 RMK A01 T00061035  RH  074%=      5-min Rain = 0
KCR1 090434Z 33006KT 01/M04 A3032 RMK A01 T00061036  RH  074%=      5-min Rain = 0
KCR1 090435Z 33007KT 01/M04 A3032 RMK A01 T00061036  RH  074%=      5-min Rain = 0
KCR1 090436Z 33007KT 01/M04 A3032 RMK A01 T00061036  RH  074%=      5-min Rain = 0
KCR1 090437Z 33007KT 01/M04 A3032 RMK A01 T00061037  RH  073%=      5-min Rain = 0
KCR1 090438Z 33007KT 01/M04 A3032 RMK A01 T00061037  RH  073%=      5-min Rain = 0
KCR1 090439Z 33006KT 01/M04 A3032 RMK A01 T00061037  RH  073%=      5-min Rain = 0
KCR1 090440Z 33006KT 01/M04 A3032 RMK A01 T00061036  RH  073%=      5-min Rain = 0
KCR1 090441Z 33007KT 01/M04 A3032 RMK A01 T00061036  RH  074%=      5-min Rain = 0
KCR1 090442Z 33006KT 01/M04 A3032 RMK A01 T00051036  RH  074%=      5-min Rain = 0
KCR1 090443Z 33006KT 01/M04 A3032 RMK A01 T00051036  RH  074%=      5-min Rain = 0
KCR1 090444Z 33006KT 01/M04 A3032 RMK A01 T00051036  RH  074%=      5-min Rain = 0
KCR1 090445Z 33006KT 01/M04 A3032 RMK A01 T00051036  RH  074%=      5-min Rain = 0
KCR1 090446Z 32006KT 01/M04 A3032 RMK A01 T00051036  RH  074%=      5-min Rain = 0
KCR1 090447Z 33006KT 00/M04 A3032 RMK A01 T00041036  RH  074%=      5-min Rain = 0
KCR1 090448Z 32006KT 00/M04 A3033 RMK A01 T00041036  RH  075%=      5-min Rain = 0
KCR1 090449Z 32006KT 00/M04 A3033 RMK A01 T00041036  RH  075%=      5-min Rain = 0
KCR1 090450Z 32006KT 00/M04 A3033 RMK A01 T00031035  RH  075%=      5-min Rain = 0
KCR1 090451Z 32006KT 00/M04 A3033 RMK A01 T00031036  RH  075%=      5-min Rain = 0
KCR1 090452Z 32006KT 00/M04 A3033 RMK A01 T00031036  RH  075%=      5-min Rain = 0
KCR1 090453Z 33006KT 00/M04 A3033 RMK A01 T00031035  RH  075%=      5-min Rain = 0
KCR1 090454Z 33006KT 00/M03 A3033 RMK A01 T00031034  RH  076%=      5-min Rain = 0
KCR1 090455Z 33006KT 00/M04 A3033 RMK A01 T00021035  RH  076%=      5-min Rain = 0
KCR1 090456Z 33006KT 00/M03 A3033 RMK A01 T00031034  RH  076%=      5-min Rain = 0
KCR1 090457Z 33007KT 00/M03 A3033 RMK A01 T00021034  RH  076%=      5-min Rain = 0
KCR1 090458Z 33007KT 00/M03 A3033 RMK A01 T00021034  RH  076%=      5-min Rain = 0
KCR1 090459Z 33006KT 00/M04 A3033 RMK A01 T00021035  RH  076%=      5-min Rain = 0
KCR1 090500Z 34006KT 00/M04 A3033 RMK A01 T00031035  RH  076%=      5-min Rain = 0
KCR1 090501Z 33007KT 00/M04 A3032 RMK A01 T00021035  RH  076%=      5-min Rain = 0
KCR1 090502Z 33006KT 00/M04 A3032 RMK A01 T00021035  RH  076%=      5-min Rain = 0
KCR1 090503Z 33006KT 00/M04 A3032 RMK A01 T00021035  RH  076%=      5-min Rain = 0
KCR1 090504Z 33007KT 00/M04 A3033 RMK A01 T00021035  RH  076%=      5-min Rain = 0
KCR1 090505Z 33007KT 00/M04 A3033 RMK A01 T00011036  RH  076%=      5-min Rain = 0
KCR1 090506Z 33007KT 00/M04 A3033 RMK A01 T00011037  RH  076%=      5-min Rain = 0
KCR1 090507Z 33006KT 00/M04 A3033 RMK A01 T00021037  RH  075%=      5-min Rain = 0
KCR1 090508Z 33006KT 00/M04 A3033 RMK A01 T00021037  RH  075%=      5-min Rain = 0
KCR1 090509Z 33006KT 00/M04 A3033 RMK A01 T00021037  RH  075%=      5-min Rain = 0
KCR1 090510Z 33006KT 00/M04 A3033 RMK A01 T00021037  RH  075%=      5-min Rain = 0
KCR1 090511Z 33006KT 00/M04 A3033 RMK A01 T00021037  RH  075%=      5-min Rain = 0
KCR1 090512Z 33006KT 00/M04 A3033 RMK A01 T00011037  RH  076%=      5-min Rain = 0
KCR1 090513Z 33006KT 00/M04 A3033 RMK A01 T00011037  RH  076%=      5-min Rain = 0
KCR1 090514Z 33006KT 00/M04 A3033 RMK A01 T00011037  RH  076%=      5-min Rain = 0
KCR1 090515Z 33006KT 00/M04 A3033 RMK A01 T00011037  RH  076%=      5-min Rain = 0
KCR1 090516Z 33006KT 00/M04 A3033 RMK A01 T00011038  RH  075%=      5-min Rain = 0
KCR1 090517Z 33006KT 00/M04 A3033 RMK A01 T00011038  RH  075%=      5-min Rain = 0
KCR1 090518Z 33006KT 00/M04 A3033 RMK A01 T00011038  RH  075%=      5-min Rain = 0
KCR1 090519Z 33005KT 00/M04 A3033 RMK A01 T00011038  RH  075%=      5-min Rain = 0
KCR1 090520Z 33006KT 00/M04 A3033 RMK A01 T00011037  RH  075%=      5-min Rain = 0
KCR1 090521Z 33005KT 00/M04 A3033 RMK A01 T00011037  RH  076%=      5-min Rain = 0
KCR1 090522Z 32006KT 00/M04 A3033 RMK A01 T00011038  RH  075%=      5-min Rain = 0
KCR1 090523Z 32006KT 00/04 A3033 RMK A01 T00000-38  RH  075%=      5-min Rain = 0
KCR1 090524Z 32006KT 00/04 A3033 RMK A01 T00000-39  RH  075%=      5-min Rain = 0
KCR1 090525Z 32006KT 00/04 A3033 RMK A01 T00000-39  RH  075%=      5-min Rain = 0
KCR1 090526Z 32006KT 00/04 A3033 RMK A01 T00000-39  RH  075%=      5-min Rain = 0
KCR1 090527Z 32005KT 00/04 A3033 RMK A01 T00-00-39  RH  075%=      5-min Rain = 0
KCR1 090528Z 32006KT M00/M04 A3033 RMK A01 T10011039  RH  075%=      5-min Rain = 0
KCR1 090529Z 31006KT M00/M04 A3033 RMK A01 T10011039  RH  076%=      5-min Rain = 0
KCR1 090530Z 32006KT M00/M04 A3033 RMK A01 T10011039  RH  076%=      5-min Rain = 0
KCR1 090531Z 32006KT M00/M04 A3033 RMK A01 T10011039  RH  076%=      5-min Rain = 0
KCR1 090532Z 32006KT M00/M04 A3033 RMK A01 T10011039  RH  076%=      5-min Rain = 0
KCR1 090533Z 32006KT M00/M04 A3033 RMK A01 T10011038  RH  076%=      5-min Rain = 0
KCR1 090534Z 32006KT M00/M04 A3033 RMK A01 T10011038  RH  076%=      5-min Rain = 0
KCR1 090535Z 32005KT M00/M04 A3033 RMK A01 T10011038  RH  076%=      5-min Rain = 0
KCR1 090536Z 32006KT M00/M04 A3033 RMK A01 T10011038  RH  076%=      5-min Rain = 0
KCR1 090537Z 32006KT M00/M04 A3033 RMK A01 T10011038  RH  076%=      5-min Rain = 0
KCR1 090538Z 33006KT M00/M04 A3033 RMK A01 T10011038  RH  076%=      5-min Rain = 0
KCR1 090539Z 33006KT M00/M04 A3033 RMK A01 T10011038  RH  077%=      5-min Rain = 0
KCR1 090540Z 33006KT M00/M04 A3033 RMK A01 T10021038  RH  077%=      5-min Rain = 0
KCR1 090541Z 33006KT M00/M04 A3033 RMK A01 T10021038  RH  077%=      5-min Rain = 0
KCR1 090542Z 33006KT M00/M04 A3033 RMK A01 T10021038  RH  077%=      5-min Rain = 0
KCR1 090543Z 33006KT M00/M04 A3033 RMK A01 T10021037  RH  077%=      5-min Rain = 0
KCR1 090544Z 33006KT M00/M04 A3033 RMK A01 T10021037  RH  077%=      5-min Rain = 0
KCR1 090545Z 33006KT M00/M04 A3033 RMK A01 T10021038  RH  077%=      5-min Rain = 0
KCR1 090546Z 33006KT M00/M04 A3033 RMK A01 T10021037  RH  077%=      5-min Rain = 0
KCR1 090547Z 32006KT M00/M04 A3033 RMK A01 T10021037  RH  078%=      5-min Rain = 0
KCR1 090548Z 32006KT M00/M04 A3033 RMK A01 T10031037  RH  078%=      5-min Rain = 0
KCR1 090549Z 33006KT M00/M04 A3033 RMK A01 T10041037  RH  078%=      5-min Rain = 0
KCR1 090550Z 32006KT M00/M04 A3033 RMK A01 T10041037  RH  078%=      5-min Rain = 0
KCR1 090551Z 33006KT M00/M04 A3033 RMK A01 T10041038  RH  078%=      5-min Rain = 0
KCR1 090552Z 33006KT M00/M04 A3033 RMK A01 T10041038  RH  078%=      5-min Rain = 0
KCR1 090553Z 33006KT M00/M04 A3033 RMK A01 T10041038  RH  078%=      5-min Rain = 0
KCR1 090554Z 33006KT M00/M04 A3033 RMK A01 T10031037  RH  078%=      5-min Rain = 0
KCR1 090555Z 33006KT M00/M04 A3033 RMK A01 T10041038  RH  078%=      5-min Rain = 0
KCR1 090556Z 33007KT M00/M04 A3033 RMK A01 T10041039  RH  077%=      5-min Rain = 0
KCR1 090557Z 32007KT M00/M04 A3033 RMK A01 T10031040  RH  076%=      5-min Rain = 0
KCR1 090558Z 32007KT M00/M04 A3033 RMK A01 T10031040  RH  076%=      5-min Rain = 0
KCR1 090559Z 32007KT M00/M04 A3033 RMK A01 T10031040  RH  076%=      5-min Rain = 0

Page generated in 0.0707 seconds.